GFSSW_prec_cthk_000.txt.gz
RH
28 27 20 10 12 12 12 10 12 13 14 13 14 15 14 12 11 11 12 12 13 14 14 14 13 16 16 15 14 14 15 16 18 16 14 13 13 14 12 13 15 18 20 24 29
27 15 13 13 13 11 10 11 13 14 13 14 14 15 13 12 10 10 11 13 13 14 13 13 12 14 14 15 16 16 17 17 17 15 12 10 10 9 10 12 16 19 20 22 23
17 16 15 13 11 10 10 12 14 13 13 13 15 15 14 13 10 10 13 14 14 15 15 14 14 14 13 15 18 14 16 17 15 11 9 9 9 9 9 12 14 18 17 17 17
18 16 13 12 10 10 12 14 14 12 12 14 15 16 15 14 12 11 14 14 14 14 13 12 12 11 11 13 11 10 8 8 8 6 6 7 7 9 10 10 11 12 14 17 19
15 14 13 11 11 12 14 14 13 11 13 14 15 14 14 12 11 13 14 14 14 12 12 12 14 13 14 14 13 12 14 16 16 17 13 11 13 12 14 13 13 13 17 17 18
15 14 13 14 14 14 14 14 13 12 12 14 15 14 13 12 13 13 13 13 14 14 14 15 17 17 18 19 20 19 17 18 18 18 18 16 15 17 17 16 17 18 20 21 21
16 15 14 14 14 13 13 13 13 14 15 16 16 15 14 13 14 14 13 13 12 12 15 17 20 22 22 23 23 21 21 19 21 20 19 19 19 17 17 17 18 19 20 23 23
16 15 15 14 13 13 12 12 14 16 16 17 16 14 13 13 13 14 14 11 11 13 15 17 19 20 22 22 23 22 20 22 21 21 20 20 21 20 18 16 16 18 19 20 20
16 15 15 14 13 13 13 12 12 14 17 17 18 18 13 12 11 12 11 9 12 15 17 18 20 18 18 17 21 19 20 21 21 21 22 21 20 19 19 19 18 17 18 18 19
16 15 14 13 13 13 13 13 13 15 17 16 16 16 14 13 11 9 9 9 12 15 17 16 19 20 20 18 22 20 19 20 24 24 24 22 21 20 19 19 17 16 17 19 20
15 14 14 14 14 14 16 17 16 16 16 16 15 16 13 11 11 10 8 11 13 14 15 15 21 23 20 20 20 20 19 23 24 24 23 22 24 21 21 21 19 18 18 21 23
15 14 14 14 15 19 21 22 23 17 17 14 12 13 9 11 12 11 8 11 13 14 13 18 21 22 20 21 21 21 21 24 22 23 25 24 23 20 20 22 23 24 22 28 29
14 14 14 14 16 18 18 19 18 17 18 12 11 11 11 11 12 11 10 13 14 15 15 18 18 19 19 20 22 22 22 23 27 27 28 27 24 22 23 24 26 27 28 30 32
14 14 14 14 13 15 18 16 17 20 25 18 15 14 12 14 15 15 16 18 18 16 14 17 21 20 19 24 23 24 23 26 29 31 36 31 39 30 29 29 30 31 31 33 36
13 13 12 12 16 14 14 12 14 19 40 21 16 16 17 16 16 20 22 22 21 19 19 22 21 25 27 27 27 26 26 28 30 36 37 38 40 37 36 35 34 37 39 40 40
14 15 14 14 17 14 14 13 17 42 41 23 21 21 22 22 22 25 27 26 26 29 28 26 25 27 30 32 30 29 29 31 38 40 48 40 42 48 45 44 46 47 45 44 46
19 17 19 19 18 17 16 23 43 42 28 29 27 23 26 27 26 27 29 30 33 31 36 34 31 31 32 32 30 34 37 49 49 56 56 45 45 43 46 48 49 52 55 58 62
27 26 23 24 24 22 24 38 41 37 33 31 29 27 31 29 28 31 32 37 37 36 41 46 46 37 35 34 38 41 42 55 59 64 57 44 47 46 46 50 52 55 60 66 66
29 28 28 26 26 25 33 45 41 37 33 32 31 32 33 32 32 37 42 44 44 41 44 52 47 40 38 38 42 44 49 47 55 68 69 56 48 43 50 55 57 58 62 62 60
33 31 31 28 29 37 42 38 37 35 34 33 36 37 42 45 44 43 44 48 48 44 44 49 53 45 43 43 47 47 47 60 69 77 84 67 58 56 53 57 58 64 61 60 60
43 37 34 37 38 40 46 42 38 36 37 42 44 48 48 48 48 47 52 49 47 45 47 50 53 50 47 52 54 51 60 64 67 76 86 90 70 54 55 64 68 69 67 66 68
49 42 38 43 45 47 43 41 40 41 40 42 45 48 50 48 50 51 52 52 51 52 53 52 55 62 55 56 55 55 59 65 80 77 79 87 66 52 59 60 65 65 67 70 70
42 42 43 46 46 49 44 44 44 46 48 49 47 46 47 50 53 54 54 55 54 52 51 51 54 59 50 55 53 53 49 58 66 73 77 84 69 55 61 68 66 70 71 74 73
41 43 42 44 44 41 41 44 44 44 46 47 49 51 53 57 56 55 56 54 52 47 45 45 48 51 59 55 62 57 47 53 63 75 73 64 65 61 68 67 69 72 73 74 72
38 38 43 49 45 44 45 45 44 45 42 42 46 46 46 49 48 49 49 50 44 43 46 49 55 55 55 57 62 56 57 60 65 59 73 61 61 60 65 67 71 73 73 72 75
32 34 37 40 41 42 44 42 41 42 43 43 45 45 44 45 44 46 46 47 47 44 46 50 58 63 56 59 67 62 60 60 60 60 61 61 58 66 72 76 77 76 72 72 77
33 32 30 36 37 38 40 37 39 40 42 44 45 44 45 42 46 48 44 41 39 41 46 55 61 70 64 71 76 66 57 54 55 52 57 64 63 68 73 77 82 78 72 78 84

GFSSW_prec_cthk_003.txt.gz
RH
28 29 32 29 24 16 11 13 12 14 13 14 15 16 15 11 11 12 12 14 15 15 14 11 11 13 14 14 14 13 14 14 14 15 14 13 13 12 12 13 12 15 17 19 23
29 29 27 23 11 12 13 12 13 15 14 15 16 16 14 11 11 12 14 15 16 16 15 13 13 13 14 15 13 12 13 13 13 12 10 9 9 8 8 12 14 14 14 15 19
29 25 20 12 14 13 12 12 15 14 15 16 17 17 15 12 11 14 14 15 14 14 14 13 14 12 12 13 13 12 13 13 11 9 9 9 9 8 8 11 12 12 13 15 18
24 18 15 15 13 11 12 15 15 14 16 16 17 17 13 12 12 14 14 14 13 12 14 12 11 11 12 12 9 8 9 11 13 11 8 9 9 9 10 9 9 12 14 16 18
17 16 14 12 11 12 14 15 14 14 15 16 16 14 13 12 13 14 14 14 13 13 12 12 10 10 11 11 11 14 15 16 16 16 16 14 15 13 15 14 14 16 19 20 21
16 14 12 12 12 14 15 15 14 14 15 15 15 14 12 12 13 13 14 15 14 12 12 12 14 15 15 14 14 16 16 19 20 20 18 17 16 17 17 16 15 17 20 21 22
15 14 14 14 14 15 15 15 14 13 15 15 15 13 13 13 13 13 13 13 12 13 16 17 19 19 20 20 19 19 19 19 19 20 19 18 19 20 18 17 16 16 18 20 21
16 15 14 14 15 15 15 14 13 15 15 15 14 13 12 12 12 12 12 11 11 14 15 16 18 19 19 18 19 19 20 20 20 20 20 19 19 19 18 18 17 16 18 19 20
17 16 15 15 15 15 14 14 15 16 17 16 16 14 12 11 11 10 9 8 11 14 16 17 16 16 16 16 21 19 20 21 21 22 22 20 18 18 19 19 18 16 17 19 21
16 16 15 15 15 14 14 14 14 17 17 16 15 13 13 11 10 8 7 9 13 15 16 16 19 18 18 19 21 20 18 20 23 23 23 21 19 20 21 20 20 18 20 22 25
16 15 15 14 14 16 14 14 15 16 15 15 16 14 11 10 10 9 7 10 11 13 15 16 20 21 20 20 19 20 22 22 23 22 23 23 24 21 20 21 22 21 21 24 27
15 14 14 15 17 16 15 15 17 18 16 12 12 11 10 10 10 8 7 11 13 14 14 17 20 20 20 19 20 22 23 22 20 23 26 26 24 21 22 22 23 25 27 27 29
15 14 14 15 16 14 15 17 15 17 15 12 12 11 11 11 11 11 12 15 17 16 16 18 18 19 19 21 22 22 22 23 27 28 28 29 26 25 26 25 27 29 30 32 34
14 13 12 13 16 15 19 17 18 18 21 17 14 13 13 12 14 15 18 20 21 19 17 19 20 22 23 24 25 25 24 26 29 32 36 31 36 35 30 31 33 33 34 36 38
13 13 12 12 12 15 16 15 17 26 34 20 16 17 16 15 16 21 23 23 24 22 22 24 22 25 28 29 27 27 26 29 31 37 38 36 39 37 36 35 36 38 40 41 40
14 13 13 14 13 15 13 13 19 37 37 23 21 22 21 20 22 26 27 26 26 29 30 31 28 29 32 32 31 29 30 33 39 40 46 40 42 41 41 42 42 44 46 47 48
16 16 15 15 15 14 16 24 36 36 27 26 24 23 25 25 27 29 30 31 33 28 36 36 36 36 36 36 34 34 35 47 47 54 52 43 43 43 45 48 50 54 56 56 57
18 16 16 17 18 18 21 38 32 32 30 30 28 27 28 28 30 32 33 38 36 37 45 47 43 40 39 37 39 39 41 53 53 62 56 45 51 48 48 53 56 61 60 58 58
24 24 22 23 24 24 32 42 37 36 33 32 30 32 35 34 32 35 40 44 45 43 45 53 46 42 42 40 42 43 50 47 58 68 68 57 52 47 51 57 58 57 56 59 60
28 27 27 27 28 34 37 36 33 33 33 34 36 36 40 44 45 45 46 47 46 45 45 50 55 46 43 44 45 46 48 58 66 73 75 62 56 51 51 57 51 53 57 58 62
32 28 30 34 37 36 40 37 37 39 39 41 43 46 48 48 47 47 49 48 48 48 47 48 52 48 46 48 50 52 58 59 62 70 74 79 62 52 52 53 55 59 63 65 68
38 33 36 40 39 41 41 39 39 41 40 42 44 45 48 48 49 48 50 51 52 50 47 48 49 53 46 45 46 49 56 59 70 67 69 75 60 51 57 60 63 67 70 68 66
42 39 41 43 48 46 41 42 43 44 46 46 47 48 49 51 53 52 53 53 51 50 46 44 49 54 48 52 48 51 52 57 63 69 73 77 64 52 57 62 63 65 66 67 66
41 46 44 44 43 41 40 40 42 42 43 45 47 47 49 52 51 50 51 49 46 44 42 43 48 49 58 50 53 53 55 59 65 75 74 67 60 55 57 56 59 63 65 68 69
38 43 46 47 43 40 40 39 41 40 39 40 43 41 39 43 41 44 43 43 42 42 43 47 51 49 53 57 58 54 57 57 64 62 72 59 59 52 55 63 67 68 71 72 69
36 39 39 42 41 40 41 39 40 40 39 39 42 43 42 43 41 44 45 45 45 41 45 49 53 54 52 54 59 59 59 64 60 60 62 60 58 55 60 65 69 69 71 72 72
30 31 32 39 37 39 41 36 37 37 37 37 40 41 40 40 42 41 43 44 44 47 51 57 62 71 65 67 74 63 60 61 59 57 59 64 60 59 65 67 66 64 68 68 69

GFSSW_prec_cthk_006.txt.gz
RH
26 29 27 31 32 30 25 20 19 16 15 17 18 17 14 12 12 12 14 16 15 14 11 11 12 14 14 13 13 14 15 15 13 13 12 12 12 11 10 12 12 14 16 17 19
26 28 30 33 33 25 21 14 15 16 16 18 18 15 13 13 13 16 16 16 16 15 11 11 12 13 14 14 13 13 14 12 11 9 9 8 8 8 9 11 13 13 13 13 16
31 30 32 30 24 18 13 14 16 17 18 19 17 15 13 12 14 17 17 15 16 16 15 12 12 13 13 12 11 11 11 11 8 8 9 10 10 9 9 11 11 10 13 15 18
31 33 28 22 15 13 13 16 17 17 19 18 17 15 12 13 16 16 14 13 13 15 13 13 12 12 13 14 7 8 11 12 11 9 9 10 11 10 12 11 12 13 15 17 20
30 25 21 14 14 13 15 17 16 17 18 17 17 15 14 15 16 15 13 12 12 12 12 10 9 10 12 10 10 13 16 18 18 17 16 14 16 16 17 15 14 16 19 20 22
23 16 14 14 13 14 17 16 17 17 18 19 17 15 14 14 16 15 14 13 14 15 14 11 12 11 11 11 12 15 16 18 20 20 18 17 17 18 17 16 16 17 18 20 21
16 15 14 14 14 17 16 16 16 16 18 17 15 14 14 14 14 14 14 14 13 14 15 16 16 16 16 18 18 18 18 18 19 20 19 19 20 18 18 19 17 16 18 19 20
18 16 15 15 16 17 16 15 15 17 17 16 14 13 13 13 13 12 12 13 12 14 15 16 19 18 18 17 18 19 18 20 21 21 21 20 21 19 18 19 20 17 18 21 22
17 16 16 16 16 16 15 15 16 17 17 15 13 12 12 12 11 10 9 9 13 14 16 17 17 16 15 17 20 20 19 20 22 23 24 22 21 19 19 19 20 19 19 23 27
18 18 18 17 17 16 16 16 16 16 15 15 14 13 12 10 10 9 7 10 13 14 15 17 18 17 19 19 19 20 19 20 20 22 24 24 22 22 21 22 22 20 22 24 28
18 18 18 17 18 17 16 16 16 15 15 15 15 13 10 10 9 7 7 11 12 13 16 17 20 22 21 19 20 20 22 23 20 21 23 25 26 22 21 23 24 24 25 24 27
18 17 16 17 17 15 14 15 17 16 13 14 12 9 10 10 9 8 7 11 13 14 14 17 19 20 21 20 20 21 23 22 22 23 25 28 27 23 24 24 25 26 27 28 29
16 15 15 16 15 14 14 15 16 16 13 13 12 12 11 12 12 12 11 14 16 16 17 18 19 19 19 22 24 24 22 24 26 27 28 30 28 28 26 27 28 29 30 30 31
15 14 14 16 14 15 16 15 15 16 18 15 13 14 13 13 14 16 17 19 21 20 21 22 20 22 24 24 26 27 24 26 28 31 34 32 35 33 31 30 32 33 34 34 35
14 14 14 15 16 16 17 16 16 22 29 19 18 17 15 13 16 19 21 21 24 24 24 26 26 28 29 29 29 29 28 28 29 33 36 38 38 35 35 34 35 37 38 38 39
14 13 13 13 13 16 15 14 19 32 31 23 21 21 20 20 22 25 24 25 28 29 30 31 31 32 34 33 32 29 29 30 36 39 45 41 43 39 38 40 41 40 40 42 46
14 13 13 16 16 14 14 19 30 34 26 24 22 22 22 25 28 29 30 31 33 28 37 35 35 37 37 36 35 35 34 41 45 52 51 42 42 39 39 43 43 43 47 49 51
17 16 15 15 14 15 20 33 27 28 26 25 25 27 28 29 32 34 35 38 36 37 46 47 42 40 39 37 41 41 42 52 48 61 57 45 46 46 46 46 48 50 51 54 56
20 18 17 17 16 18 29 38 34 33 30 30 30 32 33 33 33 36 39 43 43 43 45 54 46 44 42 43 43 45 50 49 58 64 63 51 46 48 49 50 50 52 56 58 58
25 22 20 21 22 29 34 34 30 31 32 32 33 35 37 41 42 44 45 46 44 46 45 48 52 45 45 46 45 46 47 53 59 67 66 56 49 49 52 51 53 55 56 60 62
29 25 29 29 32 33 36 33 34 36 37 39 41 43 46 47 46 47 47 46 46 47 44 44 47 41 42 47 49 51 55 55 56 65 73 78 61 51 52 53 54 56 58 60 63
30 30 33 36 35 36 35 34 38 39 39 40 41 42 44 46 48 47 48 48 48 48 47 45 47 48 38 43 48 50 53 55 62 61 72 74 62 50 55 57 56 59 59 61 65
33 34 35 37 40 43 41 40 39 40 40 41 44 46 47 48 50 51 52 52 50 47 44 39 44 48 37 46 48 52 54 56 62 69 73 79 62 52 57 57 57 59 63 66 67
37 42 39 39 42 42 40 39 41 41 42 43 45 44 45 46 46 45 45 43 41 40 40 41 47 46 50 41 45 51 52 56 63 75 74 68 61 50 54 55 57 57 63 65 63
38 44 43 46 45 42 39 38 40 39 39 40 41 40 40 44 43 45 44 44 43 43 44 47 52 50 49 49 49 48 51 58 70 68 77 60 64 57 58 59 61 62 63 62 63
37 43 42 43 42 40 41 38 40 38 37 37 38 40 39 39 39 40 38 38 39 40 44 48 52 54 55 56 59 58 55 63 66 66 68 67 66 57 56 65 67 63 66 67 71
35 37 39 45 41 40 39 36 35 35 36 34 35 37 38 38 36 36 35 36 42 45 49 55 61 66 61 61 64 54 51 63 63 61 60 62 55 57 64 69 68 65 69 72 75

GFSSW_prec_cthk_009.txt.gz
RH
24 20 25 23 26 27 26 26 25 23 22 20 18 17 12 12 14 15 15 15 13 11 12 12 13 13 14 13 14 16 16 14 13 13 12 12 11 10 10 13 13 16 16 15 19
27 28 29 26 28 29 27 26 25 22 19 19 19 16 14 17 18 18 16 16 15 10 11 13 14 15 14 14 14 13 13 13 11 9 9 8 8 8 9 12 14 14 12 12 14
31 26 29 31 33 32 28 25 17 17 19 20 19 16 15 17 17 18 16 16 17 12 12 13 14 16 15 14 12 11 12 9 8 8 8 9 9 9 9 10 10 10 13 15 18
30 31 32 33 32 24 17 16 16 19 20 19 17 15 14 14 19 18 16 16 17 15 14 14 15 15 13 11 9 9 10 11 10 7 9 10 10 12 14 10 13 15 17 19 23
32 32 34 27 17 14 16 16 18 20 19 18 16 15 14 15 16 15 15 15 15 15 12 10 11 11 11 10 10 11 14 15 15 15 14 13 14 16 17 15 15 17 19 22 22
32 28 22 13 15 15 17 17 19 20 20 19 17 15 16 17 18 16 15 14 15 15 14 11 9 9 10 11 12 13 15 17 18 17 17 16 17 20 19 18 17 17 19 20 21
23 16 15 15 15 17 18 19 20 21 21 19 17 16 16 18 17 16 14 15 16 16 15 15 13 13 12 12 15 16 16 18 19 21 20 19 21 20 20 21 20 18 19 22 23
18 17 16 16 18 18 18 18 19 20 19 17 16 15 16 16 15 14 13 14 15 15 16 17 17 16 16 16 16 18 18 19 21 22 23 22 22 22 21 19 21 21 19 23 26
19 17 18 18 19 17 17 17 19 18 18 16 15 14 14 13 12 11 11 12 13 15 16 16 15 14 15 18 18 18 17 19 21 23 24 24 24 22 21 21 21 21 20 22 26
19 19 20 19 18 17 17 18 19 18 18 16 14 13 12 12 10 8 9 12 14 14 16 16 15 16 18 16 17 20 20 21 20 20 23 24 23 22 20 22 22 20 20 22 26
21 20 20 20 18 17 18 19 18 17 17 17 13 11 11 10 8 7 9 10 12 12 15 16 17 20 21 19 19 20 22 23 21 22 22 25 25 22 22 23 24 23 22 24 27
21 20 21 20 19 19 18 18 18 15 16 13 11 11 11 10 10 8 9 11 12 14 14 16 19 19 20 19 20 21 22 21 22 23 24 26 25 23 24 26 27 28 29 29 29
19 19 19 18 18 17 15 19 16 14 15 15 13 12 12 13 12 12 11 12 15 17 17 18 18 19 20 23 24 25 22 24 25 25 26 28 27 28 27 28 29 30 31 32 34
18 18 18 16 16 16 15 16 16 14 17 16 15 15 13 13 14 15 14 17 18 20 22 21 22 24 24 25 26 26 25 27 27 29 30 32 30 31 30 30 32 34 35 36 37
17 16 17 16 16 16 15 14 15 21 26 19 17 17 15 14 15 18 18 19 21 23 24 25 27 29 30 30 30 30 29 29 30 31 33 35 32 32 33 33 34 36 38 39 40
15 15 15 17 16 19 16 16 18 25 27 21 20 20 19 20 21 22 22 22 25 28 28 29 29 30 32 31 32 32 31 32 34 36 39 39 37 36 37 38 38 38 40 43 48
14 14 13 14 14 16 15 18 24 31 25 22 21 22 23 25 27 27 28 29 30 27 35 32 33 34 34 33 35 35 32 35 40 44 41 39 39 38 41 41 42 45 49 50 52
14 14 14 15 16 14 17 27 26 26 24 22 22 25 26 28 31 32 32 34 34 34 40 41 39 39 40 39 40 41 40 45 43 48 46 42 44 43 44 47 50 52 52 55 59
16 16 15 14 15 17 27 32 28 27 24 25 28 30 32 32 32 34 38 39 41 41 42 47 43 42 43 43 43 43 48 45 52 61 57 44 46 48 47 48 52 53 57 61 64
21 18 18 16 17 23 32 30 27 30 31 30 32 32 35 39 40 44 46 44 43 43 42 46 47 43 43 43 43 43 45 46 51 57 56 45 47 44 50 52 52 55 57 57 58
24 22 25 22 25 28 33 31 32 34 35 36 38 41 43 45 46 47 47 45 45 44 41 40 42 40 41 45 47 49 51 53 53 60 65 71 46 45 48 50 53 55 56 54 55
29 29 30 29 30 33 33 32 34 38 40 40 40 41 43 45 47 47 49 48 49 47 45 40 40 39 36 43 48 49 50 51 54 52 58 65 50 44 52 54 57 56 56 58 59
31 32 33 33 36 39 36 35 37 38 40 39 41 42 44 45 47 48 48 47 44 40 39 37 40 40 35 44 46 47 48 51 54 60 62 72 54 49 54 55 58 58 61 63 63
33 39 34 33 34 37 39 39 40 39 40 40 43 42 42 44 45 47 46 43 42 42 42 41 45 41 40 37 42 47 50 55 59 69 66 61 59 52 54 58 59 61 65 66 65
37 39 36 41 40 41 40 37 39 40 39 40 41 39 39 44 42 43 40 37 36 37 39 41 45 45 45 45 47 47 50 55 62 64 74 62 63 57 57 60 60 62 65 65 67
41 43 41 45 43 43 41 38 39 39 38 38 38 38 36 36 33 35 33 32 31 35 40 45 48 50 53 55 54 54 50 60 66 68 70 69 66 60 60 62 68 69 68 69 72
40 42 41 46 43 43 41 39 38 36 36 35 34 34 34 33 33 32 32 33 36 40 46 51 56 61 57 61 59 53 52 62 65 65 65 66 60 62 65 72 71 71 72 75 76

GFSSW_prec_cthk_012.txt.gz
RH
27 26 22 22 22 22 22 20 23 25 26 25 23 23 18 17 16 15 14 12 11 12 12 13 15 15 15 15 15 16 15 14 13 14 13 12 12 10 11 15 13 16 22 22 25
25 24 21 25 23 26 28 27 27 27 25 24 24 17 18 17 17 17 14 12 12 12 13 14 14 14 15 16 15 14 14 13 12 11 11 9 9 8 11 12 15 15 14 16 19
25 28 29 29 24 27 28 28 27 26 22 21 19 16 18 18 19 18 17 14 12 12 14 15 15 16 16 15 14 13 14 11 7 7 8 7 8 8 10 11 11 14 16 19 21
26 27 27 29 31 34 31 28 23 18 20 21 19 17 18 17 22 18 17 17 12 12 11 13 16 17 15 13 11 11 9 8 6 8 9 10 10 12 11 11 12 15 20 22 26
31 31 31 36 34 28 19 17 17 20 21 22 18 16 17 19 19 16 16 16 15 13 13 15 15 13 10 8 9 10 12 12 13 13 11 12 14 17 15 14 15 17 22 23 29
31 31 36 29 14 14 18 18 21 21 22 20 16 14 16 19 16 14 14 15 14 15 13 11 11 10 10 11 13 14 16 17 17 18 16 16 17 17 17 17 15 16 21 25 26
31 29 15 14 16 18 18 21 22 23 22 20 17 17 18 18 17 15 15 15 15 16 15 13 11 12 12 13 15 15 18 19 20 21 19 18 20 19 18 18 19 18 20 24 26
17 16 16 17 18 18 21 22 23 23 21 19 18 17 20 17 16 14 14 15 16 17 19 19 19 17 16 17 18 17 18 20 20 20 20 21 23 20 21 21 20 21 20 23 26
19 19 18 19 20 21 22 23 23 21 19 18 17 18 17 14 14 13 13 14 16 18 20 18 16 16 17 17 16 15 17 17 19 20 21 21 23 22 21 20 21 21 21 23 27
21 20 20 21 20 20 21 22 21 20 18 17 15 15 13 13 10 10 12 14 16 17 19 18 16 16 16 15 17 17 17 17 18 19 18 20 22 19 20 20 22 23 22 23 28
21 21 21 20 20 20 21 20 19 19 18 19 16 14 12 11 9 10 11 14 15 16 18 17 18 19 18 17 16 17 18 19 19 20 21 21 21 21 22 22 24 25 24 27 31
22 23 22 19 19 20 20 20 19 18 15 14 13 13 12 10 11 10 10 12 13 14 14 14 17 17 18 17 17 19 19 20 21 22 23 23 23 23 24 25 27 29 29 30 33
23 21 21 20 21 20 19 19 16 15 16 14 13 13 13 13 12 11 11 12 14 15 15 16 16 18 19 20 21 21 21 24 24 23 23 25 27 25 26 28 30 31 33 34 36
22 21 20 20 20 18 19 16 14 15 17 17 16 14 13 13 14 13 13 14 17 19 19 20 23 23 23 24 25 24 24 26 25 25 25 25 32 30 29 31 34 36 37 38 39
20 20 19 17 18 18 18 18 15 20 23 17 17 17 14 15 16 18 16 18 19 21 23 24 26 27 28 29 29 31 29 28 27 27 27 29 30 36 33 34 35 37 38 39 42
18 18 18 18 16 17 16 17 18 24 25 21 20 20 20 19 19 20 21 20 23 24 24 26 27 27 29 28 29 30 30 30 32 34 39 36 34 38 37 37 38 38 40 42 45
17 16 16 17 16 17 16 17 22 24 22 21 21 20 21 23 23 24 25 26 26 26 28 27 29 31 32 30 33 33 32 36 43 44 43 36 34 41 38 40 42 42 45 49 53
15 15 15 14 14 17 16 25 23 24 22 20 20 21 23 25 27 28 27 28 29 28 29 32 38 36 37 38 38 37 37 42 45 44 42 37 37 41 41 43 43 45 51 54 57
14 14 14 14 16 15 24 28 25 21 19 19 22 24 27 29 29 30 32 32 35 36 36 37 38 38 40 39 39 40 42 40 45 53 49 36 39 40 43 44 46 50 55 58 61
16 15 15 15 15 20 29 23 22 21 24 26 28 29 30 32 34 35 40 40 39 37 36 38 41 38 38 38 39 38 39 44 42 56 42 32 36 41 44 46 49 54 57 58 59
18 20 17 16 20 29 30 26 26 29 29 31 32 33 36 39 40 40 40 41 40 39 37 35 36 34 33 37 38 41 42 42 41 47 48 47 33 40 46 50 51 53 55 59 61
22 26 21 21 26 28 27 27 31 33 35 37 37 37 39 42 42 41 42 42 43 39 33 31 33 33 33 39 42 43 44 43 46 50 54 58 44 42 48 52 55 58 61 62 64
29 30 27 27 33 34 30 33 34 36 38 37 38 37 39 41 43 42 43 42 40 36 36 35 35 32 34 40 43 45 45 45 48 53 56 67 49 49 55 57 60 61 62 64 66
31 38 34 32 30 30 33 36 37 39 37 36 37 37 39 40 40 43 42 40 37 35 33 33 36 34 30 32 36 41 44 49 52 60 58 55 54 54 58 60 62 63 65 68 70
32 35 33 36 33 33 35 38 39 39 37 37 37 37 36 41 40 38 35 32 31 31 32 35 37 39 38 37 38 46 48 49 50 58 69 62 61 64 63 61 61 65 70 71 75
35 35 34 34 34 35 40 42 39 38 37 36 36 36 33 33 29 31 27 26 25 31 34 37 42 44 44 43 42 45 47 52 58 61 66 68 69 65 65 67 71 72 74 77 79
38 37 37 41 39 42 43 40 37 36 37 36 35 33 33 30 28 29 30 30 30 34 39 45 49 53 57 53 51 59 50 52 57 64 68 71 68 68 71 75 76 75 77 80 81

GFSSW_prec_cthk_015.txt.gz
RH
23 26 23 19 19 22 19 19 19 20 23 25 26 24 21 19 18 18 20 14 12 12 12 13 14 16 17 17 19 15 19 21 18 19 15 12 13 12 17 20 20 20 30 31 29
23 26 26 23 21 22 21 22 20 23 25 26 25 21 21 21 17 22 13 13 12 13 14 16 17 17 19 18 17 17 18 20 15 15 14 12 13 9 14 15 17 20 19 28 23
26 25 22 23 23 24 26 27 25 27 27 27 22 19 21 19 24 21 15 14 13 14 15 16 16 17 17 16 16 17 22 13 11 11 11 9 9 9 13 16 15 19 17 27 23
26 25 28 27 29 24 27 28 28 27 26 24 19 19 20 22 32 19 16 14 14 14 18 19 20 23 22 18 16 15 14 10 7 6 10 10 11 10 13 14 13 16 20 26 24
27 24 27 27 28 30 30 29 28 25 22 23 18 20 19 27 25 18 17 14 13 14 18 20 22 18 15 12 11 11 9 8 7 8 10 10 12 16 12 13 14 19 23 28 33
24 28 28 34 32 33 30 23 19 22 25 23 18 19 21 32 19 17 17 16 17 19 17 18 18 13 12 15 20 14 14 14 14 14 12 14 16 17 18 15 15 18 25 31 33
32 31 39 35 25 18 17 19 23 26 24 21 17 16 22 25 16 16 15 14 13 17 17 12 12 13 12 13 14 15 17 17 18 18 17 16 20 20 19 18 17 18 23 33 37
33 27 22 13 15 18 20 24 25 24 21 18 16 15 26 16 17 14 13 14 14 14 14 12 12 18 22 17 16 19 21 28 21 19 20 20 36 23 19 19 20 20 23 25 33
24 17 16 18 18 20 23 24 24 22 20 19 18 21 21 16 17 15 15 17 17 18 19 18 20 21 18 22 23 21 31 25 24 19 22 21 34 29 23 20 20 23 23 22 31
19 18 19 18 21 23 24 24 23 21 20 19 20 23 16 18 14 13 14 15 19 20 20 19 20 24 23 28 29 26 21 19 22 23 17 20 22 26 20 18 19 21 25 27 27
20 20 20 21 22 22 23 23 22 22 21 26 18 21 13 12 10 14 13 16 18 21 29 19 31 34 25 21 23 17 18 22 23 21 18 21 23 22 20 21 23 24 24 26 30
22 22 22 21 21 23 22 36 29 22 19 18 15 14 12 13 14 13 14 18 18 25 18 17 27 19 18 18 17 19 21 22 21 19 19 25 26 24 23 25 26 27 28 31 34
26 24 21 20 21 21 26 25 20 18 18 16 16 15 13 15 15 13 14 14 17 18 16 26 22 16 18 20 20 23 21 25 24 22 21 22 28 26 24 26 28 29 31 33 35
25 23 21 21 21 23 25 18 17 19 22 15 16 14 14 14 14 12 11 14 15 18 18 20 18 20 21 23 21 27 24 23 23 24 34 26 37 40 32 29 31 33 35 36 39
24 23 22 22 26 24 21 16 16 22 30 17 16 14 13 17 16 15 13 16 21 20 21 26 24 27 28 27 25 29 26 26 26 27 27 27 23 50 40 36 34 38 40 43 44
23 21 20 22 22 22 18 15 15 32 29 18 17 19 18 17 17 19 19 17 20 20 23 24 24 26 27 26 25 26 29 28 30 34 37 39 30 50 51 42 38 39 44 47 46
20 21 20 20 23 19 17 19 22 36 21 20 20 21 23 21 21 22 23 25 28 31 31 27 30 28 28 33 33 32 36 46 50 47 54 40 28 48 41 41 40 44 46 49 50
18 18 19 18 17 17 17 26 35 26 22 21 22 23 25 24 25 25 27 28 26 26 30 35 43 33 32 34 36 36 37 45 46 48 44 38 33 49 40 39 41 44 47 50 53
18 18 19 17 17 18 24 36 28 21 21 20 21 24 24 24 26 28 30 28 27 30 38 35 38 33 33 33 33 39 40 33 42 47 44 34 41 45 47 46 43 44 48 53 56
20 20 21 16 16 17 34 35 24 20 19 20 27 29 32 28 29 31 33 34 34 31 31 32 40 33 33 30 35 35 33 45 43 53 40 36 32 48 60 58 51 52 54 57 60
21 23 18 16 15 25 33 25 22 21 23 30 32 30 32 32 34 38 36 35 34 33 31 29 29 34 29 37 39 45 47 41 37 44 51 43 38 46 49 51 51 53 56 61 65
24 32 16 16 24 32 33 26 25 26 28 31 34 32 37 36 37 38 37 38 37 34 33 29 31 32 30 31 32 36 41 41 47 48 51 54 46 45 50 54 56 58 64 64 65
31 35 19 20 37 35 30 28 28 30 32 36 36 35 37 37 38 37 40 38 35 32 35 30 34 34 33 41 42 39 42 43 45 49 47 63 53 58 62 67 65 63 67 68 71
34 35 25 26 33 30 29 28 31 34 36 37 36 34 35 36 36 39 38 36 32 30 28 28 31 31 33 32 33 37 38 41 47 55 58 55 58 57 63 67 66 64 69 71 71
38 38 31 32 31 32 31 32 34 35 37 36 35 36 38 38 38 39 36 31 28 27 29 29 33 34 33 32 32 37 42 43 44 49 57 57 60 64 66 64 65 69 71 71 72
37 37 34 35 34 34 34 34 35 38 37 36 37 37 36 37 32 34 30 27 26 28 32 29 38 38 37 36 34 39 40 41 45 52 55 59 61 64 65 66 68 67 69 71 73
33 32 36 34 34 36 35 38 39 40 39 37 37 36 37 35 32 30 29 29 28 31 34 34 38 41 46 41 42 54 46 43 49 54 59 65 64 66 67 73 73 74 75 75 75

GFSSW_prec_cthk_018.txt.gz
RH
22 23 24 23 22 23 22 22 21 20 21 23 25 27 22 22 19 20 26 23 13 11 10 10 13 14 16 18 21 23 28 32 30 28 26 15 15 17 20 24 24 28 28 27 23
22 24 22 25 20 18 20 21 20 20 21 23 26 25 23 21 21 26 22 13 12 11 13 16 17 17 19 17 21 21 21 20 20 21 21 13 16 13 15 17 19 24 32 29 23
24 24 24 26 24 21 21 21 22 19 24 26 27 23 21 24 29 26 13 14 13 14 17 22 22 21 22 20 21 23 24 20 19 15 16 14 11 12 16 15 18 18 25 24 23
25 26 25 23 21 22 24 26 24 25 28 29 24 21 21 31 43 18 15 14 14 15 18 20 21 23 24 23 20 23 24 20 15 10 12 10 9 11 15 18 16 18 20 30 26
28 26 25 25 25 23 24 26 29 29 29 26 21 20 33 37 31 15 15 15 16 19 22 27 32 29 25 24 18 16 15 9 6 7 10 10 10 14 13 14 13 20 26 31 31
29 27 24 24 27 27 27 29 29 30 26 23 20 22 29 42 24 18 14 16 21 21 24 30 34 28 20 19 25 12 11 9 8 8 8 9 12 13 16 13 14 20 25 32 38
27 22 21 31 30 31 32 31 29 24 26 22 20 21 37 38 21 19 16 18 19 26 27 22 22 22 19 18 19 16 17 14 13 13 13 12 18 16 19 17 14 17 23 36 39
25 30 33 42 33 30 27 24 23 27 25 22 18 18 36 26 19 15 16 16 16 20 20 14 14 24 27 18 13 16 23 28 24 19 17 16 29 26 23 18 18 19 22 30 39
33 35 37 25 20 19 22 26 27 25 23 19 17 22 33 13 12 13 12 18 15 14 14 13 15 18 16 16 21 21 33 35 31 23 24 20 37 36 29 22 21 24 25 26 34
26 20 17 18 20 24 27 27 24 22 20 18 22 32 20 19 15 14 15 17 20 20 18 17 22 23 21 31 40 37 26 27 24 25 16 19 27 39 29 24 21 20 29 31 32
23 20 21 21 25 26 25 23 22 23 26 31 22 26 18 15 13 16 15 17 21 22 28 20 30 40 29 25 28 28 24 24 32 23 19 15 20 27 23 23 22 24 29 35 40
23 22 23 25 24 25 32 43 39 27 25 23 20 19 15 16 15 15 14 20 19 28 28 21 30 34 30 18 19 26 23 26 26 21 17 21 25 28 24 26 28 28 29 34 36
25 25 24 24 24 28 40 42 30 20 20 19 19 15 14 17 17 14 15 18 21 30 20 30 30 16 13 19 20 25 22 30 27 23 20 20 26 30 29 29 31 31 34 36 38
29 26 25 24 25 28 36 23 21 21 20 13 15 12 13 15 14 12 14 17 19 23 19 24 22 17 19 22 20 27 27 25 21 23 31 34 36 43 42 41 40 35 34 38 40
29 27 26 26 33 32 28 18 21 29 35 17 16 15 13 19 17 14 9 12 23 22 21 29 23 26 28 29 23 28 27 22 23 26 26 29 34 45 46 46 48 45 41 41 45
28 27 26 32 29 31 23 17 19 50 41 18 17 18 17 16 18 17 14 17 19 20 24 26 23 24 24 22 21 22 26 27 29 30 43 35 41 58 52 52 57 53 45 44 47
28 27 26 30 33 24 18 17 27 46 21 20 20 21 22 21 20 21 22 22 30 30 29 27 28 26 23 31 35 32 37 50 68 60 58 51 38 51 50 55 57 55 50 47 48
25 25 23 24 27 20 18 28 40 30 24 21 21 23 26 23 22 24 26 26 26 30 39 42 50 35 30 32 35 36 36 52 53 64 55 40 35 51 48 52 53 44 48 49 50
22 21 22 20 20 20 27 38 36 24 25 22 23 27 26 23 25 27 34 29 26 28 38 37 42 30 29 29 29 38 44 28 40 49 46 29 54 58 57 58 56 55 55 54 56
21 20 25 19 18 19 34 42 37 25 21 22 25 29 34 30 30 35 33 30 31 29 31 31 42 32 27 32 38 30 28 43 54 58 47 37 43 63 65 68 64 62 60 55 57
24 26 28 18 19 24 36 40 28 21 20 24 35 30 41 34 37 38 38 34 33 29 30 29 31 33 33 34 33 40 44 38 37 45 54 51 40 46 49 59 59 59 57 60 63
23 34 30 16 23 25 38 33 24 20 22 29 33 35 38 35 41 42 38 38 33 32 32 23 29 37 30 27 27 31 36 37 50 44 54 54 42 42 48 52 60 65 63 72 71
31 50 27 18 34 40 38 30 26 25 26 30 35 36 38 40 42 39 39 37 34 32 33 25 32 39 38 43 38 33 37 36 42 50 51 59 51 54 63 70 75 70 71 74 71
48 46 25 22 44 34 33 29 29 29 31 34 37 35 37 39 37 37 40 38 33 26 21 25 26 27 34 30 30 31 30 34 40 57 56 56 54 55 60 70 70 70 70 66 62
54 40 23 25 33 36 33 31 32 32 32 36 37 34 37 39 37 39 39 34 29 22 23 25 28 28 28 28 29 29 31 34 39 44 52 51 55 60 64 64 63 62 62 62 63
51 50 30 39 27 34 37 34 33 33 35 37 38 38 40 40 37 40 35 30 28 25 30 26 34 31 30 28 30 29 31 36 39 45 47 53 54 62 66 62 66 66 62 67 66
43 38 36 32 36 37 36 33 35 36 38 40 41 42 42 38 36 36 32 29 27 31 30 31 36 37 41 35 35 51 44 40 43 50 53 60 61 64 67 65 68 62 64 67 71

GFSSW_prec_cthk_024.txt.gz
RH
25 21 23 24 20 19 21 20 22 22 23 23 22 21 24 26 25 21 20 21 20 17 14 12 11 15 16 32 34 36 38 40 40 49 47 45 43 41 44 43 32 27 26 25 20
22 22 24 22 21 21 20 19 22 23 22 23 21 23 26 24 23 22 24 19 15 14 13 11 17 28 36 35 35 33 34 33 39 43 41 38 35 31 32 31 30 28 28 26 20
24 24 23 21 21 20 21 19 22 24 21 20 22 25 26 25 28 25 18 16 14 14 14 17 24 34 36 33 32 30 28 26 31 35 35 29 23 18 18 22 19 21 24 25 25
23 22 22 23 22 20 22 20 19 20 21 22 25 26 25 31 34 19 16 16 15 16 19 25 29 36 32 29 28 25 24 22 24 26 24 21 17 10 11 14 16 17 18 21 23
23 24 27 25 21 23 23 21 20 23 24 25 28 29 33 33 25 19 19 20 21 23 30 32 34 35 29 28 25 24 23 23 23 20 19 17 13 10 12 15 19 23 23 25 22
25 26 29 24 22 22 19 18 23 26 28 30 29 34 36 36 24 22 24 26 28 29 32 33 31 30 27 27 25 21 19 16 19 21 14 10 10 11 14 19 23 23 23 24 28
28 29 30 26 23 23 21 18 24 30 34 31 30 39 37 29 25 23 24 28 31 33 34 29 26 29 26 23 22 16 7 6 9 13 10 10 12 17 20 26 27 24 23 26 31
30 30 29 27 22 20 25 27 29 34 35 32 37 37 35 30 27 25 24 26 29 31 29 27 25 24 21 17 14 14 16 26 26 19 12 17 24 29 27 26 28 24 24 28 33
29 28 25 21 19 24 29 31 35 35 34 28 30 36 31 26 20 20 19 21 22 27 25 25 25 23 21 21 29 29 25 29 29 29 25 23 29 30 26 26 29 28 27 33 38
27 24 22 22 30 31 33 32 41 29 24 23 31 32 26 18 14 16 16 17 18 21 13 23 24 27 32 34 38 37 33 29 31 29 28 29 25 25 23 27 29 28 30 36 38
28 32 34 30 34 39 45 35 27 26 24 23 31 31 24 19 15 12 12 12 13 15 28 31 34 35 32 37 37 36 35 34 34 31 29 31 29 28 29 31 33 37 39 38 39
31 35 30 35 39 37 29 30 34 33 27 31 30 24 17 17 14 12 12 17 24 35 36 34 33 35 34 33 38 40 37 37 32 30 30 26 26 31 33 37 36 37 38 36 45
28 26 22 26 30 30 37 38 38 35 35 29 24 20 21 22 19 18 21 27 29 35 32 32 32 31 35 37 36 41 38 37 36 31 28 26 31 32 35 37 40 44 45 49 53
24 24 26 29 33 37 37 41 39 32 32 26 23 20 23 23 19 19 22 26 27 27 27 29 33 32 27 22 24 29 29 35 32 28 24 24 40 39 42 43 44 44 45 47 58
25 26 29 31 38 36 41 40 35 32 37 21 19 18 21 21 15 15 21 25 25 25 25 26 29 27 28 26 24 23 22 23 25 25 27 34 42 46 47 48 49 52 57 60 60
27 29 29 34 40 40 41 33 33 46 33 23 20 14 19 22 17 11 15 23 26 26 28 30 31 28 26 25 24 23 24 28 32 34 42 43 46 54 53 51 59 62 62 60 58
29 29 30 40 41 36 35 32 45 58 23 22 18 15 18 19 18 14 17 24 29 29 28 29 31 25 25 27 28 26 34 50 55 63 62 51 58 59 59 58 60 60 56 58 63
29 30 32 37 36 34 33 42 59 33 27 19 22 23 23 23 24 23 23 28 28 33 33 38 43 30 26 33 33 30 33 47 54 62 58 46 56 55 53 62 59 62 66 69 73
29 29 29 30 32 33 32 61 51 32 26 23 25 28 26 25 25 28 30 29 32 37 37 41 44 34 23 26 33 34 32 31 43 48 54 52 53 56 61 64 69 76 77 73 67
29 28 27 27 28 26 38 56 42 31 29 25 27 28 32 25 28 31 33 35 29 35 37 39 42 29 29 30 27 25 27 37 40 43 45 49 55 62 58 61 60 57 62 62 63
28 27 26 27 25 24 43 50 36 31 28 25 29 32 35 34 28 34 37 33 28 29 30 36 38 32 34 34 30 31 31 31 33 43 49 57 47 41 50 55 56 54 59 64 71
28 28 28 27 25 28 30 44 32 31 26 28 31 37 39 38 42 44 43 38 34 32 29 34 36 39 34 26 25 27 29 31 41 36 53 53 46 45 48 53 55 60 63 73 77
26 35 33 27 27 30 27 35 32 28 26 24 33 38 40 41 48 47 46 41 32 34 32 30 33 44 39 37 31 29 29 31 35 42 42 50 45 44 49 51 56 60 64 68 71
30 42 39 27 28 25 38 34 34 26 25 23 32 38 38 41 40 46 44 38 31 32 27 29 31 31 37 31 25 23 25 29 33 47 43 46 40 43 50 52 56 59 63 66 69
37 39 35 27 25 28 35 37 33 28 26 26 30 36 37 40 42 45 42 38 34 26 23 28 30 29 27 26 24 25 25 26 28 32 39 36 41 46 52 55 58 62 65 67 70
44 42 34 29 29 30 41 36 32 28 29 30 30 35 38 39 38 43 38 36 33 27 24 27 33 27 24 28 29 26 25 29 31 29 34 40 47 50 54 59 63 67 70 73 75
51 48 32 33 36 37 35 35 33 35 31 31 34 40 44 42 40 42 40 39 34 30 30 28 32 32 31 36 34 35 29 29 29 31 32 38 41 49 54 59 64 69 72 74 74

GFSSW_prec_cthk_027.txt.gz
RH
27 29 25 22 19 22 22 18 19 19 19 18 20 22 22 22 24 27 24 23 25 22 17 15 16 13 28 39 35 39 37 41 43 52 59 60 61 59 51 44 42 37 24 25 21
31 30 25 20 22 23 21 19 19 19 21 22 22 22 22 23 25 24 26 24 21 18 16 16 13 19 25 27 34 32 34 38 43 50 52 49 49 46 39 35 35 28 26 24 20
32 25 20 22 22 22 21 20 19 18 22 22 23 23 23 25 26 28 23 20 20 18 16 13 18 26 29 32 33 33 34 36 42 42 42 41 41 33 28 26 24 24 26 21 18
31 23 21 21 22 22 22 19 20 19 22 22 21 23 26 26 32 23 21 20 18 17 17 19 27 31 36 36 34 30 32 28 36 41 37 34 29 27 14 17 17 16 16 18 21
26 23 22 23 27 25 21 20 21 20 21 21 23 26 26 33 27 24 23 22 23 23 23 34 38 38 36 34 34 27 26 25 24 24 24 23 22 14 13 16 19 20 22 22 23
25 22 23 25 27 23 22 22 21 20 25 24 26 29 33 32 28 25 26 28 31 29 31 36 38 35 35 31 27 26 23 22 21 21 21 17 12 10 17 23 25 22 23 26 28
23 22 26 27 28 22 22 20 18 23 28 28 31 34 35 31 28 26 29 29 29 36 37 36 35 32 29 28 25 23 19 14 17 14 10 9 11 14 20 25 25 25 26 31 35
22 24 28 28 27 23 22 20 18 27 31 32 36 39 36 27 26 27 30 31 30 39 37 35 35 31 26 24 25 22 18 21 17 14 12 12 17 22 26 28 28 29 31 36 40
23 27 28 27 26 24 22 25 30 30 36 36 41 39 32 26 26 26 28 30 31 36 33 32 35 32 28 26 23 18 28 26 27 22 19 20 24 28 32 32 31 34 34 36 40
25 26 27 23 22 20 24 33 34 37 37 40 39 31 34 31 27 25 26 27 33 32 27 27 27 28 25 22 24 24 28 28 31 31 26 28 28 27 27 30 32 35 36 36 40
29 27 22 20 20 26 34 35 36 40 30 29 33 35 30 23 20 22 22 22 28 28 26 24 27 25 24 29 30 31 28 31 31 32 33 31 29 28 25 29 35 40 40 41 42
29 29 30 27 34 36 37 47 50 33 25 28 31 29 23 19 17 17 18 20 21 24 24 27 30 30 36 39 36 37 32 31 32 34 31 31 32 31 31 33 36 37 41 47 52
27 35 31 35 35 44 51 42 36 30 31 32 31 24 23 19 15 14 14 16 25 35 33 36 33 40 42 42 42 42 38 37 37 36 34 34 32 35 38 39 41 47 49 58 59
27 32 28 34 40 42 36 38 36 34 38 32 25 22 20 20 17 15 17 29 36 35 34 33 30 31 32 32 30 39 39 38 37 38 39 34 41 38 41 47 52 54 54 58 64
25 27 27 27 35 35 41 42 38 33 42 25 24 23 25 24 21 22 27 30 33 33 30 32 35 34 31 28 25 26 28 29 32 33 33 36 40 40 46 50 54 56 58 60 66
23 25 28 34 38 38 41 35 34 45 33 25 24 22 25 23 20 21 28 30 30 30 31 32 30 28 26 27 26 27 30 33 37 36 43 41 40 44 46 48 52 57 63 68 72
25 29 30 40 40 39 37 34 42 59 26 23 21 18 21 22 19 18 28 31 33 33 35 34 31 28 26 28 27 27 33 45 51 56 54 45 49 48 46 49 55 58 65 65 62
28 30 33 40 40 37 36 39 48 41 25 21 18 18 22 22 21 19 23 29 29 31 37 38 38 28 29 30 31 30 33 49 48 58 55 49 54 52 48 48 51 55 58 60 67
30 33 34 40 38 37 38 50 50 37 25 21 23 24 26 25 24 22 24 27 27 30 34 38 37 31 25 30 31 34 32 32 44 50 53 49 44 45 47 51 55 57 59 67 69
33 32 33 37 35 38 45 57 47 31 27 26 27 29 29 28 29 31 30 28 29 32 36 39 45 34 30 28 29 29 30 37 39 41 43 43 48 51 47 50 54 59 60 56 55
33 32 34 32 33 37 53 59 43 32 31 30 30 31 33 31 29 33 34 35 33 33 37 41 41 37 33 34 31 30 28 30 34 42 46 52 43 35 43 46 48 49 51 54 57
32 34 33 29 31 39 47 49 40 36 32 29 31 32 36 38 35 36 36 36 32 30 34 41 42 46 35 33 26 27 28 27 34 31 49 48 39 33 40 44 46 50 54 56 60
32 38 33 27 31 35 38 42 38 34 31 30 31 33 39 44 45 44 42 42 36 33 33 35 39 47 39 32 29 29 28 32 31 36 37 44 37 34 38 42 45 48 52 57 61
34 41 36 30 25 24 29 38 36 33 30 29 31 37 42 46 47 50 49 46 36 33 31 34 36 34 37 31 30 25 25 30 30 43 39 38 30 37 41 44 47 50 54 58 63
36 38 29 31 29 27 26 34 33 31 27 27 27 35 40 45 47 48 46 43 34 32 34 29 32 33 31 28 24 22 24 28 29 29 33 28 32 32 38 43 47 51 57 61 65
39 40 29 26 22 28 32 37 33 30 28 26 27 36 39 40 39 46 44 39 33 33 31 29 35 29 30 32 30 25 24 26 26 26 30 29 33 35 39 44 49 55 60 63 67
44 39 30 31 23 30 31 35 31 30 30 29 30 33 38 41 40 40 40 36 34 34 34 29 32 32 29 35 29 27 23 26 25 27 28 36 32 38 43 46 50 55 59 65 70

GFSSW_prec_cthk_030.txt.gz
RH
23 23 25 28 28 24 21 19 21 19 16 17 17 19 21 22 20 22 27 27 27 28 23 18 18 20 18 30 38 40 43 43 38 50 70 68 67 65 66 60 48 46 37 32 28
23 22 27 29 24 21 22 22 21 19 17 18 20 21 22 22 21 23 23 26 26 25 19 17 18 19 20 33 42 37 45 42 39 51 56 55 51 55 64 45 40 37 36 31 21
22 24 29 29 22 21 22 22 20 19 17 20 22 22 23 22 22 29 30 28 24 21 19 18 18 20 23 39 35 36 35 36 39 52 55 53 53 50 45 31 25 27 30 27 20
22 25 29 25 22 22 23 24 21 18 18 22 25 22 23 24 31 29 26 23 20 19 17 17 22 22 33 36 34 33 36 36 43 49 52 47 38 40 31 19 17 21 22 20 18
23 26 29 24 21 23 26 26 21 17 20 21 22 23 24 28 30 28 25 23 22 19 20 26 28 33 36 35 35 32 31 30 38 41 36 34 32 29 21 20 20 22 22 21 21
24 29 28 23 22 25 26 24 19 20 20 22 24 26 27 33 30 29 28 26 26 26 32 35 37 39 37 35 31 29 26 26 26 26 23 25 24 19 19 24 23 23 27 28 29
26 28 23 21 25 27 26 23 21 21 21 26 27 27 32 34 30 31 29 29 28 31 39 40 39 38 34 32 31 26 25 24 22 22 23 18 14 14 24 27 25 28 32 32 33
27 24 21 23 28 28 26 22 21 18 23 30 32 34 35 32 29 31 30 30 32 38 38 40 38 35 33 30 26 25 21 21 18 16 13 11 13 18 29 29 29 32 36 37 37
27 23 21 26 29 29 26 23 21 21 27 33 38 40 37 33 29 32 33 35 36 41 38 38 37 32 27 27 28 25 27 24 17 13 12 15 22 29 35 37 34 33 35 37 41
27 22 24 26 28 26 25 24 24 32 31 37 44 44 33 34 29 31 32 35 38 41 37 38 38 33 30 28 27 21 31 28 25 23 22 21 25 31 36 38 37 37 40 40 41
26 24 27 26 26 24 25 26 35 35 36 36 42 33 34 34 27 31 32 38 37 38 36 35 36 36 33 27 28 24 28 28 29 26 28 35 36 35 32 37 39 41 41 44 45
26 27 25 24 22 22 27 36 38 39 37 36 35 34 32 34 30 30 31 34 36 37 34 31 31 29 29 32 32 26 30 32 31 30 30 37 38 35 31 36 37 39 43 46 48
28 27 27 26 27 33 41 45 49 44 34 33 34 34 27 23 23 25 29 30 29 34 32 34 30 30 33 42 36 39 32 35 36 36 36 36 37 40 34 32 34 39 43 48 52
29 31 30 32 37 47 50 53 47 34 32 34 34 27 24 22 20 22 24 27 29 32 32 36 36 35 44 41 40 40 39 35 38 38 42 38 42 42 41 39 39 44 49 52 54
32 30 32 35 43 48 44 38 36 35 43 32 30 24 23 21 18 19 21 23 27 32 30 32 33 36 39 35 30 29 30 34 36 37 37 39 41 37 43 46 48 52 55 56 58
32 30 33 33 39 39 39 37 36 46 39 29 24 23 25 24 19 19 24 26 31 35 31 36 35 34 33 32 28 26 29 33 37 38 44 38 35 36 40 40 47 54 56 59 61
30 30 33 35 35 39 37 37 40 52 27 26 25 27 29 28 22 24 31 35 36 39 39 36 35 32 30 29 28 28 32 44 48 51 50 40 43 38 42 45 51 55 55 55 60
31 28 33 39 38 41 38 36 39 45 29 25 23 25 27 26 26 28 33 35 33 33 39 40 39 31 28 28 31 30 33 47 46 56 51 44 48 43 44 45 48 50 52 55 59
32 32 38 43 41 38 35 43 48 43 28 23 21 21 25 25 21 23 28 30 31 32 35 40 37 31 27 29 32 33 35 35 49 50 55 50 43 41 39 40 43 47 51 54 58
32 36 41 42 39 38 41 48 49 37 27 20 20 22 26 25 25 25 26 27 27 28 32 35 38 33 32 30 33 34 34 37 40 39 38 39 41 43 40 42 43 46 51 56 57
38 40 39 40 38 38 48 47 48 34 27 23 26 28 29 28 31 29 28 29 28 31 33 37 38 44 35 32 32 34 31 32 34 40 42 47 40 30 34 37 41 45 48 49 52
39 40 38 39 40 44 50 49 46 34 32 31 29 32 35 36 37 35 35 34 35 33 33 39 45 51 43 33 32 30 29 28 33 28 46 44 34 27 32 36 40 44 47 48 52
37 42 39 36 40 48 47 52 42 36 35 33 33 34 39 46 47 39 38 37 39 32 33 36 43 53 42 35 32 28 31 33 31 34 36 43 30 28 31 34 39 42 45 50 56
38 46 42 38 32 42 45 49 43 38 35 34 35 36 41 50 49 52 50 45 42 38 31 34 40 39 41 31 31 29 31 30 27 39 35 35 24 27 30 33 37 41 45 49 54
40 41 35 40 36 38 41 43 42 37 33 32 34 36 39 50 50 51 51 48 42 40 36 32 37 38 36 34 29 24 25 28 26 26 29 24 28 25 29 33 36 41 47 50 54
43 41 34 32 31 34 37 38 38 36 34 28 30 34 36 46 46 48 45 44 39 37 36 37 39 32 35 37 34 27 24 24 25 25 29 27 26 24 27 31 37 40 45 49 53
42 38 30 34 33 32 34 34 34 30 32 30 28 28 35 41 42 42 40 40 36 35 37 36 37 34 35 36 31 29 23 24 24 25 24 28 23 28 30 32 36 41 47 51 54

GFSSW_prec_cthk_033.txt.gz
RH
20 21 21 21 22 25 27 20 20 20 20 18 17 18 16 18 20 22 20 19 25 29 29 26 23 24 21 20 29 35 43 43 50 62 72 67 71 72 65 58 63 60 52 36 36
20 22 21 20 23 27 24 21 20 20 20 18 18 19 19 19 21 19 18 21 27 29 29 22 21 23 22 21 24 40 42 44 43 46 50 57 60 56 59 66 60 52 43 37 29
20 21 20 19 24 27 22 21 20 20 19 18 19 20 20 21 21 21 23 25 28 27 24 20 20 22 22 23 34 41 43 44 41 49 54 57 59 48 48 50 35 33 38 32 23
20 21 20 20 25 26 22 22 22 24 20 17 20 22 23 23 26 25 27 28 25 22 21 18 18 20 21 33 39 41 36 38 40 50 56 61 61 38 34 29 23 23 29 21 17
21 22 20 22 26 24 22 24 25 24 20 16 20 24 24 24 26 27 27 25 22 20 19 16 17 19 35 42 38 37 37 40 41 49 49 53 41 34 29 24 22 22 22 19 18
22 22 22 24 25 22 23 26 24 22 17 18 21 24 25 28 28 29 28 25 24 23 23 27 32 37 35 34 34 34 33 31 38 39 40 35 31 35 31 27 24 28 26 24 23
23 22 23 24 23 21 25 27 24 21 20 20 24 29 28 30 29 31 29 30 29 31 38 38 36 38 38 37 32 28 28 27 30 35 32 30 25 23 32 31 30 35 35 33 33
23 23 25 23 23 23 27 28 23 21 18 22 27 34 30 31 31 31 32 31 35 42 40 41 40 39 38 35 34 30 29 24 23 21 25 17 17 23 34 32 32 35 38 36 37
24 26 26 23 23 25 28 27 25 23 21 23 32 38 34 33 32 33 33 33 43 43 42 42 38 37 34 31 29 27 21 22 20 19 15 14 21 27 37 36 35 35 38 39 40
25 26 26 24 25 25 28 26 26 25 25 29 37 44 36 34 32 33 32 37 44 45 43 41 37 32 30 28 29 25 29 30 22 17 16 21 32 37 43 42 39 39 40 40 41
26 26 26 25 26 25 26 26 29 29 32 30 40 42 40 35 29 32 33 39 46 42 42 40 37 32 30 28 26 22 29 29 29 26 30 36 35 35 39 40 40 39 39 42 44
27 27 26 27 25 26 23 27 29 36 33 34 43 43 37 35 28 30 32 39 41 40 38 40 38 37 36 33 33 29 34 37 31 30 30 35 38 39 33 34 37 39 41 44 47
28 27 28 26 22 23 25 35 44 44 38 38 42 35 35 33 30 30 31 38 39 41 38 36 31 32 33 33 37 35 39 40 37 38 36 34 34 38 37 34 34 39 43 46 49
29 27 28 24 25 30 41 45 48 48 40 37 36 37 35 34 32 29 33 37 39 43 40 41 38 34 38 41 43 39 35 30 32 33 33 32 29 34 37 37 35 37 41 47 50
28 30 27 28 32 43 46 49 55 52 46 35 37 36 30 26 23 26 29 33 37 41 40 42 41 38 43 40 35 42 40 40 39 34 35 35 32 30 38 36 37 38 45 50 57
28 30 29 30 43 47 54 50 45 45 43 33 33 29 30 27 23 23 28 32 36 41 36 34 35 36 35 35 39 36 32 33 34 33 36 37 33 27 34 32 40 47 52 58 59
29 31 30 37 44 47 49 43 42 46 33 34 29 27 27 27 23 23 27 32 32 36 37 33 36 36 35 36 35 32 29 35 38 42 39 36 38 31 35 40 44 49 54 56 55
31 33 33 40 43 44 41 43 42 34 35 28 26 27 29 28 24 27 30 33 32 31 38 37 37 35 32 31 30 31 32 38 39 45 43 41 41 34 38 39 45 49 51 49 50
35 35 38 43 45 42 42 44 36 41 32 29 28 31 34 32 25 29 32 34 33 34 36 40 37 33 32 33 32 34 30 33 44 50 45 38 37 35 36 35 39 43 44 46 50
36 38 40 42 47 43 42 38 36 44 32 27 27 29 30 30 28 28 32 33 33 31 31 35 39 35 33 31 33 32 34 36 37 39 34 30 32 27 30 32 34 38 40 44 49
42 45 45 48 50 44 43 36 47 43 33 26 25 24 24 27 28 26 28 28 29 29 28 31 36 36 37 35 32 35 35 34 32 34 29 31 22 24 25 28 30 34 38 43 47
49 49 50 51 48 43 39 42 50 40 32 25 25 25 25 27 30 29 28 27 27 27 30 33 40 45 46 39 34 32 32 28 30 28 37 34 24 21 24 26 31 35 38 41 44
54 50 58 53 48 42 41 48 49 38 33 30 32 33 34 37 39 38 36 33 33 34 33 33 40 48 44 39 36 33 31 29 29 33 33 41 22 22 25 26 30 35 39 42 46
54 57 60 50 39 39 47 47 48 40 36 34 34 34 39 44 48 50 40 36 35 37 36 33 37 40 42 36 34 33 34 30 29 34 28 28 21 20 24 26 29 34 38 44 47
52 52 56 47 40 40 47 49 48 42 37 37 37 35 39 48 51 52 51 46 45 45 41 33 34 37 40 39 34 28 29 31 28 25 26 20 22 19 20 23 28 34 39 42 45
49 48 48 39 38 43 47 51 45 43 38 36 35 36 37 42 45 52 49 48 42 44 42 38 38 35 39 39 36 32 28 25 27 26 25 24 23 20 22 24 28 32 37 41 45
53 45 40 44 41 44 45 52 46 44 40 36 31 33 36 41 46 48 45 40 40 40 43 37 38 38 38 35 32 33 26 24 24 22 22 26 19 24 25 27 27 31 37 41 45

GFSSW_prec_cthk_036.txt.gz
RH
16 17 18 19 20 20 19 22 21 19 18 18 18 16 17 15 17 19 21 17 19 22 26 26 24 23 26 28 24 26 31 40 62 68 65 62 60 61 63 71 67 67 62 52 57
16 18 20 21 20 19 20 23 21 19 18 18 18 17 19 17 18 18 19 18 18 23 31 29 26 25 29 26 23 28 34 39 47 57 55 60 59 61 52 56 63 62 58 45 48
17 18 20 21 21 19 21 23 21 20 20 20 17 18 20 20 21 20 21 16 19 28 31 26 23 24 26 25 24 26 38 41 40 51 57 61 56 53 50 52 48 52 54 44 41
18 19 21 22 20 20 23 22 21 21 23 22 18 19 22 23 26 25 23 23 25 28 25 22 21 22 22 23 23 35 41 38 35 49 55 51 54 53 45 35 33 39 50 35 34
19 20 21 22 20 22 24 22 20 23 23 22 16 19 25 27 26 25 23 26 27 24 24 22 21 21 22 29 35 39 35 35 50 56 51 50 51 52 42 25 23 31 37 29 27
20 21 22 22 22 24 22 21 20 24 22 19 15 21 26 28 26 26 28 29 25 22 23 21 21 29 34 34 36 35 38 39 44 48 47 43 46 51 36 26 26 26 30 27 25
20 22 23 23 24 24 20 21 22 24 21 18 19 22 29 29 28 29 31 29 28 28 30 28 33 36 38 40 36 37 34 37 42 43 39 40 39 34 33 34 37 34 33 30 28
22 24 25 25 25 23 21 21 24 24 21 18 22 26 32 28 27 31 32 32 32 34 41 39 40 39 39 37 33 28 30 33 39 33 31 32 29 28 32 35 43 42 40 38 36
23 25 26 25 25 23 22 22 24 25 22 22 23 30 34 30 30 33 34 33 38 43 42 42 42 42 41 38 36 34 31 27 24 24 26 20 19 26 34 37 41 45 44 45 44
25 27 28 26 25 24 24 23 25 25 24 25 27 35 35 33 32 33 31 35 43 44 43 44 42 37 36 34 30 30 22 22 22 21 21 18 28 27 37 43 40 43 46 44 44
29 29 27 26 24 25 24 24 28 29 24 26 28 37 39 35 33 33 30 34 47 45 42 45 38 35 33 30 28 26 33 33 29 19 18 19 30 33 37 44 41 40 42 43 45
29 30 27 26 24 26 26 29 28 32 28 28 33 41 42 36 32 32 31 36 49 44 42 42 42 32 31 29 29 24 34 39 34 29 26 28 31 34 36 38 38 39 40 40 45
29 29 27 26 25 25 22 26 32 38 39 33 38 43 41 36 31 32 32 39 43 43 43 42 38 37 35 35 35 34 35 36 34 33 33 34 34 35 33 34 35 34 39 41 45
30 30 28 26 26 23 25 35 41 46 40 32 41 44 38 33 34 29 34 40 39 43 39 40 33 34 34 34 38 39 34 33 37 39 39 34 34 35 35 35 35 36 39 44 46
31 30 29 27 24 25 36 42 50 48 40 34 41 40 36 34 34 27 32 38 40 41 42 42 39 37 37 38 39 42 34 35 35 35 32 33 31 38 33 32 34 34 39 42 46
33 31 30 27 25 38 45 54 55 52 49 38 40 37 38 33 30 32 32 34 39 42 44 44 43 43 41 41 41 41 42 37 34 37 34 33 29 23 27 26 29 34 38 42 49
35 32 30 26 36 41 51 61 52 50 36 32 34 34 32 28 28 29 30 32 39 44 45 42 38 37 38 37 37 37 38 34 33 35 30 31 26 21 27 30 36 41 45 47 52
37 35 31 28 43 48 60 57 47 29 32 33 32 31 30 27 28 27 28 31 36 39 45 39 36 34 36 37 35 35 32 30 27 32 32 32 31 33 31 32 37 42 46 47 50
41 37 32 34 50 53 61 56 35 32 35 32 32 30 30 28 25 27 29 33 34 34 36 34 37 34 35 33 31 31 29 31 35 40 39 29 28 28 29 30 34 39 42 45 45
43 38 33 42 55 58 56 45 33 37 31 29 26 27 31 29 24 25 28 31 33 33 35 35 38 33 31 32 32 31 32 31 33 37 29 23 22 21 25 26 29 35 38 41 42
49 44 38 49 61 63 51 35 31 37 35 27 26 29 32 33 29 26 29 31 32 32 32 30 29 34 34 32 32 34 32 32 31 30 24 21 17 18 19 22 26 31 35 39 42
52 48 45 58 67 63 45 35 31 36 36 29 27 27 26 26 27 25 26 27 30 29 30 28 29 36 36 35 34 31 33 31 28 27 31 29 18 16 18 19 23 27 33 37 42
55 58 61 67 65 56 40 37 36 41 35 30 27 23 23 24 28 27 25 24 27 26 27 25 30 38 37 36 40 37 32 28 27 26 27 38 18 16 18 19 20 25 31 36 40
54 65 78 79 63 46 39 37 42 45 37 29 30 33 33 34 34 38 35 32 31 30 30 30 31 31 34 38 37 37 34 29 26 29 24 24 15 17 18 18 20 23 27 33 38
55 61 70 79 54 47 38 38 50 46 37 32 32 33 34 40 41 44 43 35 34 34 34 35 34 32 33 34 36 32 29 29 28 25 27 18 17 14 17 18 21 23 27 31 36
53 67 73 74 52 48 42 48 52 45 37 35 34 33 32 36 39 47 44 43 41 44 41 39 37 34 36 36 36 34 29 26 27 24 23 20 18 17 20 20 22 23 26 31 36
58 60 62 66 54 45 43 53 53 49 42 38 36 36 36 38 40 47 47 46 44 43 43 42 40 38 33 34 34 38 27 24 23 24 23 24 19 20 21 22 24 27 27 30 35

GFSSW_prec_cthk_039.txt.gz
RH
19 18 17 16 16 18 19 19 18 20 18 17 16 16 16 16 15 16 18 19 20 18 22 28 27 26 24 31 31 29 30 30 43 65 64 63 58 53 55 59 62 68 71 65 69
20 19 17 16 17 19 20 19 18 20 18 17 16 16 14 18 17 18 18 18 18 18 21 28 29 29 26 27 31 28 26 33 50 64 75 69 69 61 47 42 57 63 70 60 56
21 19 18 17 18 18 20 17 20 21 18 17 19 19 15 20 23 23 22 19 16 16 27 35 29 28 28 28 31 26 30 40 37 47 64 61 59 53 48 56 56 57 66 50 47
22 20 19 18 19 19 20 19 22 20 18 18 20 19 16 22 34 29 22 22 19 24 31 31 27 26 27 31 28 25 28 38 37 41 55 55 58 57 62 78 48 50 50 45 45
24 22 20 19 20 20 20 20 22 19 18 20 20 17 16 29 28 27 22 21 23 26 28 27 27 27 27 26 26 26 35 33 38 42 48 59 60 47 58 29 28 48 44 38 45
26 24 23 21 21 21 21 22 20 17 20 20 19 15 19 30 29 27 24 24 28 27 26 28 29 29 31 33 35 38 36 38 45 55 54 53 54 50 35 31 30 36 38 39 44
29 27 24 23 23 23 22 22 19 18 21 20 19 17 25 28 30 28 27 32 31 28 28 28 28 31 37 40 36 34 38 41 48 50 48 49 42 58 40 33 33 33 35 39 39
30 28 26 24 24 23 23 23 19 19 21 20 18 22 25 30 29 27 32 33 33 33 32 31 33 37 41 41 37 37 38 43 40 42 39 47 45 30 34 38 39 40 38 35 36
31 28 26 26 25 24 24 23 20 20 21 20 20 26 30 30 28 29 31 36 34 38 41 43 45 44 42 41 38 34 33 38 41 40 31 43 41 27 32 41 45 46 43 41 36
31 29 27 28 27 26 24 23 20 21 21 21 24 33 29 34 32 32 32 35 41 45 44 45 45 44 43 43 40 36 35 30 29 27 29 24 31 24 31 42 48 50 47 48 46
28 29 28 29 29 27 25 23 24 26 26 23 31 31 36 38 33 33 31 36 46 45 50 44 49 43 41 41 39 35 28 24 26 23 22 25 30 27 34 42 47 51 52 49 50
26 28 28 29 28 27 26 29 34 41 33 22 26 29 39 37 36 36 30 37 49 50 41 46 48 45 41 36 34 30 37 37 33 23 23 26 34 34 35 41 42 42 48 53 54
25 28 29 30 29 27 25 26 31 33 37 31 27 32 38 38 36 39 31 39 47 49 45 49 47 36 34 33 36 34 39 47 39 27 23 36 38 29 30 36 39 42 43 48 47
24 28 31 31 30 29 25 23 31 41 43 33 31 35 37 39 35 39 32 41 48 45 46 56 46 38 36 37 37 46 32 35 34 30 35 33 32 43 38 29 35 39 42 43 43
25 29 32 32 36 29 34 31 40 43 54 37 32 40 39 37 39 30 31 37 47 45 45 47 37 37 35 43 29 56 36 35 34 32 42 40 29 37 51 39 36 33 37 41 45
25 30 34 33 29 32 37 41 46 49 62 35 33 35 39 35 35 39 28 35 47 48 39 55 42 38 50 34 34 37 38 42 42 37 43 34 39 32 43 47 46 31 33 41 45
28 31 34 33 34 30 41 53 52 56 45 37 38 38 36 37 35 34 31 36 40 43 49 50 47 41 39 40 39 40 45 48 52 43 41 40 34 30 33 33 33 28 34 39 41
29 35 36 34 35 39 48 69 56 42 46 36 33 34 38 39 31 31 35 34 32 43 43 44 48 35 34 37 51 42 44 48 43 37 33 40 26 39 30 25 28 35 42 44 42
32 38 38 34 34 45 58 69 49 44 40 32 31 33 36 34 32 29 33 36 36 32 48 49 51 45 34 37 37 46 32 37 40 38 33 20 33 29 24 25 29 35 41 43 44
36 44 40 37 35 53 63 58 50 45 36 30 32 30 34 34 26 27 34 34 42 34 39 47 52 44 34 34 32 31 38 33 31 38 33 28 27 32 28 21 26 31 36 40 43
44 50 42 40 40 62 59 50 50 44 36 31 34 32 32 33 27 29 35 37 33 30 30 42 39 52 37 31 35 42 31 28 32 38 38 28 27 26 17 21 22 27 32 36 39
54 54 51 39 47 58 57 53 51 44 37 30 32 29 29 35 34 33 36 38 29 32 33 38 43 43 38 37 29 30 35 35 36 34 32 35 24 19 16 18 21 24 29 33 35
59 67 68 43 46 59 57 56 50 42 38 32 27 29 31 36 35 32 32 39 32 30 34 35 29 35 41 33 25 27 29 29 33 33 31 38 26 23 18 15 18 20 25 30 32
69 77 75 54 48 59 64 53 46 47 41 33 31 32 30 29 29 34 33 29 26 26 26 26 23 33 38 42 46 42 37 36 34 34 27 23 25 26 22 20 19 21 23 28 32
79 63 58 52 51 64 70 54 44 42 43 37 39 31 28 33 32 37 38 32 28 27 28 30 32 31 30 36 36 38 36 35 35 30 31 24 26 22 21 20 20 22 23 27 30
81 63 58 52 57 81 74 56 43 43 43 38 33 33 35 39 38 41 41 39 34 33 34 34 38 35 36 33 30 31 30 30 28 26 25 24 24 21 23 20 21 20 24 28 35
77 68 63 66 58 72 69 53 48 58 50 41 34 36 41 47 43 43 52 50 48 45 45 46 43 41 38 33 31 36 28 27 26 26 26 27 24 27 27 24 24 24 29 29 31

GFSSW_prec_cthk_045.txt.gz
RH
22 21 19 19 19 20 19 18 16 16 16 16 16 15 12 12 13 13 16 17 18 18 17 16 24 27 25 34 35 34 33 31 32 47 60 64 70 68 64 82 73 64 56 55 58
24 23 21 20 21 21 20 19 17 17 16 16 16 15 12 12 12 15 20 20 17 17 16 16 20 29 29 29 34 35 34 31 35 52 54 55 52 48 52 64 80 72 74 67 64
28 26 24 22 23 23 21 20 19 18 16 17 16 15 12 13 17 24 25 23 19 17 15 16 21 26 34 30 29 35 32 33 35 42 49 52 49 50 57 62 64 70 86 74 61
32 28 26 25 24 24 23 21 20 19 17 18 17 14 13 13 27 26 26 23 19 18 15 19 31 33 30 30 30 34 32 33 43 45 47 56 56 61 64 66 63 69 85 81 64
38 31 28 26 26 26 24 23 22 20 18 18 17 14 13 15 18 24 28 24 19 19 19 27 33 31 31 33 35 30 34 36 45 41 49 55 56 62 59 50 58 68 74 76 69
44 35 30 29 28 27 26 25 23 20 18 19 17 14 14 19 21 25 27 23 20 20 25 31 32 32 33 33 40 37 37 37 42 45 56 51 52 52 51 48 62 53 56 53 67
51 42 34 32 30 29 28 26 23 20 19 18 17 14 14 12 23 28 28 24 26 28 27 28 35 35 33 38 44 39 38 37 40 41 49 50 55 57 61 53 44 48 45 47 60
51 47 38 35 32 31 28 27 23 20 19 18 16 15 13 14 20 27 26 27 32 33 30 31 34 31 33 37 38 41 37 38 39 42 51 56 56 58 57 45 38 38 35 48 60
47 48 41 36 34 31 29 26 22 19 19 19 17 22 16 21 20 23 24 28 34 37 38 34 31 30 33 44 42 38 39 40 46 45 52 58 47 47 50 40 40 40 39 42 41
39 44 41 34 30 29 29 26 22 20 20 18 17 19 17 22 23 24 28 31 35 40 44 45 41 42 43 45 47 38 41 42 44 43 42 46 40 35 35 32 33 36 34 34 31
37 44 39 27 25 28 29 27 32 37 34 27 18 17 24 29 27 26 32 33 36 47 48 59 51 50 48 49 46 48 48 45 39 43 36 37 32 28 26 34 40 37 32 30 29
35 42 39 27 23 26 27 27 35 35 30 25 22 23 27 28 27 28 32 34 37 50 58 55 57 59 49 47 46 46 49 50 41 39 30 26 25 28 33 31 38 39 35 32 31
31 33 39 30 22 24 25 25 28 33 30 19 17 19 25 26 25 27 33 32 38 53 55 57 56 50 53 48 47 48 47 48 44 37 24 25 30 30 30 30 35 35 35 34 33
27 29 38 33 24 30 32 28 23 30 40 22 21 25 18 23 24 27 33 32 37 51 52 51 51 51 54 50 52 51 48 45 42 37 32 33 42 41 38 37 44 42 42 46 49
27 29 37 35 25 33 38 31 30 36 54 28 28 23 16 23 27 26 33 36 39 44 50 49 48 49 48 47 54 47 37 43 48 52 48 48 47 41 46 44 46 46 44 48 50
26 30 38 34 22 36 43 37 38 52 54 31 28 26 24 24 29 33 36 36 36 44 44 42 46 46 48 50 41 38 31 41 52 54 56 42 46 52 42 46 48 42 54 54 54
32 31 36 38 23 37 42 43 52 62 24 29 29 27 27 28 32 37 40 37 33 41 49 46 43 55 54 49 48 36 36 53 58 65 56 48 51 50 45 36 33 38 40 49 53
25 44 42 37 27 38 40 50 56 34 29 30 30 30 30 31 34 37 40 40 33 32 44 53 55 52 53 49 46 49 41 57 68 74 66 54 56 43 42 44 39 40 38 38 42
26 39 50 52 44 43 48 57 43 31 27 34 35 34 32 32 38 39 37 42 33 25 36 55 57 56 56 47 48 43 53 50 58 58 63 41 34 41 35 42 43 32 33 39 36
27 38 40 49 41 48 50 44 42 29 41 44 44 35 35 33 41 47 39 33 34 30 37 46 60 61 60 52 41 36 39 50 48 40 37 32 39 55 47 50 45 34 29 29 32
30 40 43 50 41 50 50 49 42 32 46 46 46 39 35 38 43 45 41 36 34 37 38 42 48 55 56 58 37 42 40 38 38 42 54 56 47 42 45 39 33 32 25 26 28
37 45 50 54 53 47 49 41 41 36 48 50 46 42 37 38 44 41 37 34 36 42 50 45 46 60 60 55 45 39 39 45 55 41 48 49 36 36 40 36 33 33 30 30 29
40 46 61 50 50 42 45 44 37 34 48 49 47 40 36 44 50 47 38 39 41 44 51 45 42 57 51 56 50 43 41 33 41 48 44 53 40 32 30 33 34 32 29 33 34
49 58 63 52 38 35 42 39 34 33 50 49 50 44 40 43 46 51 44 40 39 44 46 33 36 37 40 38 31 44 45 42 40 51 40 43 35 32 33 32 34 32 30 33 35
50 53 45 56 47 41 40 40 35 35 47 56 52 45 41 46 42 49 55 46 44 41 39 38 34 36 33 28 29 40 42 44 52 49 53 46 43 35 33 37 36 36 35 35 36
62 48 49 52 52 49 40 38 33 30 45 56 57 45 41 44 39 46 47 41 40 38 34 32 34 27 30 29 31 34 35 33 41 38 35 37 39 40 40 39 38 36 35 35 38
59 48 54 55 57 61 36 35 30 34 45 52 52 51 37 37 35 44 43 37 36 36 30 27 28 35 37 32 35 40 27 25 24 25 29 32 36 36 36 36 34 32 32 32 31

GFSSW_prec_cthk_048.txt.gz
RH
20 21 21 21 20 19 19 20 20 19 17 16 15 15 14 12 10 10 14 16 16 18 18 16 19 24 26 28 35 35 34 35 36 42 47 60 57 52 52 55 65 74 76 75 73
25 23 24 24 23 21 20 21 22 20 18 17 16 15 14 11 9 14 19 20 18 18 17 16 18 23 28 31 35 36 36 32 36 41 50 52 53 50 49 50 68 86 82 81 73
32 28 27 27 26 24 22 22 23 21 19 18 16 15 14 11 11 20 22 21 22 18 17 16 18 22 28 30 34 36 34 34 36 42 49 48 48 50 55 58 67 76 76 72 83
44 36 31 29 28 26 24 24 24 22 20 19 16 15 14 11 17 21 23 23 22 20 17 16 21 30 34 33 32 32 35 35 37 43 49 48 46 50 53 55 65 66 67 74 80
49 46 38 32 30 28 26 26 25 24 22 19 16 16 14 12 11 18 23 23 20 18 19 21 30 34 35 37 37 31 38 39 41 45 48 51 50 52 48 49 59 64 72 75 84
49 49 45 36 32 29 28 27 27 25 23 19 16 16 15 16 13 20 25 25 22 20 20 27 32 36 36 38 37 40 40 40 46 46 47 51 53 52 53 46 61 59 65 73 79
44 49 50 43 35 32 30 29 28 27 24 20 16 16 15 9 15 20 25 25 27 30 28 30 34 38 36 35 41 39 39 43 44 47 51 50 55 55 59 44 47 52 44 65 66
36 44 47 45 38 34 32 30 30 27 23 20 16 16 13 9 14 19 25 27 30 32 32 30 30 33 36 36 44 41 41 42 46 48 48 48 53 56 50 38 43 41 41 55 56
34 38 46 44 38 34 33 31 30 26 23 19 16 19 14 12 13 20 25 31 30 33 35 35 33 32 30 41 44 44 39 39 41 44 48 49 44 40 41 42 39 37 41 45 47
31 33 39 42 38 33 32 31 28 26 27 21 18 19 14 16 20 19 26 31 32 35 37 38 36 37 42 47 50 40 40 45 47 45 44 45 41 34 37 42 45 43 46 50 44
37 34 37 42 39 28 28 27 27 34 33 26 19 15 15 22 22 22 27 32 34 37 42 49 44 49 58 56 52 45 46 45 46 49 44 42 38 35 35 44 45 45 44 43 45
27 29 34 40 39 28 26 25 31 32 29 21 20 22 21 26 26 23 27 32 34 39 47 50 49 49 52 52 53 50 50 51 44 44 41 42 35 32 33 39 43 42 45 41 45
23 25 30 36 42 29 25 28 31 27 30 20 17 15 20 23 24 23 26 30 35 39 49 54 50 51 53 52 54 51 50 49 45 42 40 36 32 34 33 38 45 46 38 38 36
23 26 26 31 38 29 35 32 25 25 36 24 22 15 20 23 20 23 26 29 33 38 41 45 48 49 56 53 50 51 43 46 45 41 40 35 31 30 31 37 44 46 47 40 39
23 25 27 28 29 32 43 36 32 31 37 26 23 22 16 20 23 21 29 29 32 40 44 46 46 52 52 50 51 48 42 45 43 44 41 34 37 37 34 36 43 44 46 45 37
28 32 32 27 32 40 45 37 35 44 43 29 27 23 18 17 26 26 30 31 31 35 42 44 45 50 49 50 52 49 44 48 50 49 53 48 46 43 45 41 36 36 44 42 45
24 31 38 26 35 36 44 43 48 54 23 29 27 24 22 20 26 29 33 33 33 38 42 53 50 49 50 53 47 46 44 54 61 67 59 50 50 44 44 38 35 35 43 46 47
23 33 37 30 41 33 42 49 53 35 26 31 27 27 28 24 28 32 34 37 36 37 45 57 48 48 51 54 56 59 53 53 54 67 56 47 48 47 40 41 41 38 42 42 38
20 29 40 31 49 38 45 54 43 31 23 28 30 31 32 28 29 34 34 33 34 36 37 53 52 51 50 56 54 55 54 50 59 58 65 48 36 41 40 34 36 39 35 30 30
20 28 29 27 59 42 47 48 38 22 36 35 33 31 35 30 31 36 34 28 31 35 34 41 53 53 51 51 52 50 48 53 59 53 48 37 39 47 42 42 43 37 27 26 29
25 35 28 36 52 66 54 45 41 20 40 43 40 38 34 32 30 35 37 33 33 31 39 40 47 51 52 49 46 40 39 43 41 48 52 53 42 35 43 39 39 36 30 27 26
29 40 30 40 58 50 58 50 47 24 37 49 50 48 38 34 33 35 36 32 35 36 41 44 52 60 48 46 54 50 43 47 59 53 53 51 37 30 36 40 40 40 39 35 29
32 40 39 39 52 48 49 56 46 30 41 47 50 49 40 36 35 34 34 37 35 39 41 51 58 64 57 49 48 49 44 46 49 51 50 57 42 28 30 33 34 36 35 35 33
39 49 52 41 40 41 43 48 49 25 43 46 50 51 45 39 36 37 39 41 41 41 43 44 56 54 53 44 53 48 43 48 48 54 48 48 38 33 32 33 34 36 36 32 33
47 40 44 45 43 43 42 46 54 32 34 43 50 51 50 43 40 41 45 52 43 42 50 50 51 44 39 36 35 38 36 37 42 49 55 45 45 41 40 38 36 37 35 32 36
45 43 38 39 38 43 42 41 46 29 31 37 47 52 49 45 42 44 46 48 44 43 48 45 46 40 42 40 40 35 30 32 32 39 43 45 41 41 39 38 36 35 36 35 37
49 44 40 36 44 45 35 37 39 30 27 29 48 58 49 44 44 41 45 47 46 49 47 47 48 46 42 35 31 37 25 25 28 31 33 39 44 42 42 39 39 40 40 42 43

GFSSW_prec_cthk_051.txt.gz
RH
19 19 20 20 21 21 21 21 20 19 20 20 18 16 14 13 12 10 12 15 15 16 17 19 18 19 22 26 28 35 36 36 39 45 49 56 56 55 57 58 60 71 74 83 87
28 26 24 23 23 23 23 23 22 21 21 21 19 17 14 13 11 14 16 18 19 20 19 19 19 21 26 30 33 37 35 34 38 40 46 54 56 52 53 59 68 70 83 85 88
42 37 30 27 26 26 26 25 24 23 22 22 20 18 15 13 12 17 18 18 22 22 19 19 19 21 28 32 34 36 36 35 37 42 44 51 52 51 53 53 63 74 82 85 82
47 46 42 35 30 29 28 27 26 24 24 23 21 19 15 13 14 19 18 20 21 20 17 17 21 26 29 35 34 35 37 38 36 39 46 50 51 52 55 52 60 72 77 78 77
45 46 46 44 37 32 30 28 27 26 25 25 23 20 16 14 12 15 17 21 21 18 18 22 28 35 33 38 36 30 39 41 38 42 46 50 53 52 53 56 64 69 76 80 82
39 42 46 47 43 36 33 31 29 27 27 26 24 21 16 17 11 14 19 23 22 21 20 27 33 37 39 38 39 39 40 46 44 47 46 48 48 45 59 60 60 57 66 82 73
39 40 40 47 48 44 37 33 31 29 28 27 25 20 15 13 13 15 20 24 26 24 25 31 34 36 38 39 38 41 40 45 48 44 43 46 46 49 62 61 48 54 59 62 67
37 40 40 42 46 45 38 35 32 30 30 28 25 19 14 12 10 14 21 27 30 29 27 29 32 32 35 36 38 42 43 47 42 44 46 43 50 61 65 51 44 45 47 56 60
36 39 41 37 44 44 39 34 32 31 30 28 25 19 14 13 11 15 21 29 30 31 32 34 32 32 30 37 44 45 43 40 43 46 48 49 47 49 51 44 43 37 40 47 52
30 36 41 42 39 41 39 35 32 31 31 29 27 23 13 15 17 17 22 27 30 31 35 40 37 37 35 41 50 52 49 47 48 54 57 56 50 48 44 42 38 38 40 43 43
27 35 47 60 42 39 39 32 32 36 36 27 24 17 16 17 17 19 23 26 29 32 37 47 44 43 41 43 44 52 49 46 45 42 45 47 44 42 49 50 42 42 44 46 43
24 35 42 44 49 51 44 33 34 37 31 23 22 22 19 22 23 22 23 25 27 33 40 47 49 46 49 45 45 45 46 49 51 49 45 40 41 39 44 46 46 47 48 45 41
17 26 30 37 41 48 49 36 37 35 30 19 20 19 16 20 23 22 24 26 28 36 40 48 48 48 47 49 49 50 51 53 52 47 43 42 35 35 38 43 45 47 46 44 38
16 24 27 35 35 39 48 53 40 32 32 20 22 18 16 20 22 22 26 26 29 33 39 44 45 47 50 48 52 52 50 49 49 47 40 35 32 28 32 36 46 49 52 51 45
16 22 26 33 31 35 46 40 40 36 31 19 23 23 17 19 20 20 25 28 28 33 39 42 46 48 50 49 52 52 48 49 45 45 51 43 39 29 29 34 39 48 50 51 47
19 24 28 31 33 39 51 45 46 47 39 27 25 25 20 19 21 21 25 29 32 34 38 42 45 46 48 48 48 46 45 49 52 53 54 44 44 36 36 36 36 39 45 50 46
21 28 30 37 33 47 52 48 57 61 26 29 28 25 20 18 23 23 27 29 33 38 38 37 47 46 50 48 47 45 48 53 56 63 57 49 47 40 39 39 37 37 33 41 45
22 27 30 29 36 50 52 58 62 41 32 30 27 27 23 18 24 26 29 31 32 35 40 45 51 47 48 50 48 47 47 55 47 57 53 48 48 37 36 38 35 32 28 30 36
25 30 30 27 40 61 59 67 50 35 30 25 29 31 28 23 22 25 30 32 32 35 36 46 50 50 50 53 49 49 53 52 60 61 65 52 41 35 36 38 39 34 32 29 33
31 30 24 18 36 62 65 52 45 29 36 30 30 28 31 28 27 29 33 31 33 34 34 38 47 52 55 53 49 46 48 52 56 54 55 46 40 41 42 38 37 33 36 28 29
31 33 21 26 42 60 60 53 46 23 29 38 40 34 32 33 29 31 33 31 33 33 34 38 37 48 53 51 48 52 52 49 46 54 54 57 44 33 37 31 29 32 35 29 26
34 35 20 27 51 60 54 57 41 24 29 41 44 43 37 34 33 30 33 32 33 34 35 34 39 52 46 47 50 51 50 49 54 50 52 59 42 28 31 35 36 33 33 37 34
40 39 29 24 45 53 50 51 50 29 31 34 43 49 47 39 36 33 32 34 35 37 38 37 44 51 49 49 52 52 55 50 47 50 51 58 45 30 28 26 27 30 33 34 39
47 49 50 40 32 37 45 49 53 31 36 39 42 51 54 45 39 36 36 38 36 37 38 40 46 42 51 47 50 51 51 49 50 60 49 46 34 32 33 32 29 31 32 34 34
51 44 42 48 41 42 43 43 52 48 41 38 41 49 57 55 44 39 39 40 40 39 39 41 44 42 47 47 42 41 55 55 50 46 47 40 40 40 37 37 38 31 29 32 33
50 45 46 40 35 41 47 46 45 43 40 38 35 46 52 58 50 45 47 46 43 44 44 42 49 45 53 49 45 37 40 42 43 41 36 34 35 36 37 34 34 33 34 37 38
55 48 45 37 42 42 36 38 38 44 42 35 30 45 51 58 61 53 50 50 44 46 50 50 55 56 64 58 50 54 38 37 36 31 27 30 28 32 36 39 39 39 38 38 41

GFSSW_prec_cthk_054.txt.gz
RH
19 18 18 18 19 21 21 21 21 21 21 21 20 20 20 16 13 12 15 16 15 15 17 19 20 22 23 23 27 30 37 38 33 45 50 53 58 61 57 57 63 65 65 73 79
33 28 26 25 24 23 23 23 23 23 23 22 22 21 21 18 14 14 17 18 17 18 21 21 20 23 24 27 30 36 39 37 38 39 48 50 56 56 53 58 61 68 68 80 82
50 47 42 39 33 29 26 25 25 25 25 24 23 23 22 19 14 17 19 18 18 20 20 18 18 23 26 29 30 35 37 38 39 42 47 52 59 56 56 56 56 63 74 78 78
49 49 49 47 44 38 31 28 27 27 26 26 25 24 23 20 15 20 20 18 17 19 19 18 18 24 27 27 30 33 38 41 41 41 44 53 52 56 55 53 52 61 66 74 76
45 43 47 47 48 45 39 32 30 29 28 28 27 25 24 22 14 15 18 18 19 19 19 19 25 29 34 32 33 31 39 42 43 46 47 51 54 51 58 56 57 57 68 78 85
47 46 42 46 45 47 44 38 33 32 31 30 28 27 26 23 14 13 17 18 20 20 20 24 31 35 37 39 36 38 38 42 45 49 49 51 51 51 56 61 61 54 56 75 75
46 45 52 47 44 46 48 45 38 35 34 32 30 28 26 19 13 15 17 19 22 21 23 25 31 33 35 37 38 43 40 43 40 47 49 51 52 51 56 57 57 49 50 54 62
48 49 45 52 49 41 48 46 42 37 34 33 31 30 26 17 13 15 18 23 24 25 28 26 27 29 31 34 38 46 41 45 44 48 54 52 50 59 65 51 52 40 45 48 49
34 42 47 55 53 45 46 46 43 36 33 33 32 31 26 17 14 13 17 24 28 30 29 29 31 29 31 33 41 46 47 46 50 51 51 52 49 57 57 55 49 43 38 46 50
25 29 36 39 48 49 54 46 40 34 32 34 35 35 25 18 17 14 18 24 28 29 32 35 38 34 37 36 44 47 48 46 49 48 50 50 50 54 57 52 50 48 40 40 45
22 24 30 35 48 52 45 55 35 35 38 33 32 28 21 19 19 16 19 24 27 28 34 43 45 42 37 39 44 44 41 49 48 50 49 50 48 47 52 58 51 51 50 44 41
21 23 28 37 47 47 60 66 49 39 40 32 29 28 24 23 23 19 20 23 26 28 36 42 48 44 43 42 44 44 44 47 47 48 46 45 47 41 50 50 50 49 49 42 40
18 19 26 32 47 47 51 72 56 53 49 31 25 23 21 20 22 20 21 22 26 29 35 45 44 45 47 49 53 52 52 50 51 52 48 42 38 36 41 46 48 49 47 42 40
21 16 24 31 37 37 39 53 57 61 52 34 28 22 21 19 22 22 23 23 28 30 37 40 43 44 47 47 49 52 52 52 52 50 50 41 37 29 32 36 42 43 42 44 45
26 19 23 27 39 36 39 47 47 55 48 30 34 26 20 19 19 21 24 24 28 31 33 38 42 45 46 45 45 49 49 51 51 49 49 46 46 35 29 32 38 44 47 49 53
26 20 24 25 37 39 49 47 48 57 52 31 36 28 23 20 21 22 24 26 27 33 33 34 40 43 47 46 44 46 48 52 53 52 53 46 46 38 33 31 33 38 43 46 44
25 23 26 26 29 42 57 53 59 64 29 31 35 29 23 20 22 23 24 26 30 36 36 34 35 43 47 48 45 44 49 55 60 63 56 49 48 41 40 39 39 37 39 40 45
31 25 23 28 32 43 60 63 61 44 39 36 34 33 28 21 22 24 24 28 27 31 38 38 39 43 46 48 48 48 47 56 50 57 47 46 46 36 35 38 38 39 32 30 34
31 31 26 25 32 49 60 71 53 44 36 34 34 37 32 21 21 26 26 27 27 30 34 41 37 46 48 49 50 50 49 48 60 63 65 47 38 28 32 36 40 41 37 31 26
33 33 26 20 36 56 68 62 54 37 39 39 39 35 31 27 23 27 28 25 27 31 34 37 38 46 52 52 52 50 49 54 60 57 54 46 41 37 32 41 38 35 31 25 28
42 38 22 22 32 61 66 57 54 35 36 46 47 43 33 32 28 27 28 26 28 32 36 39 37 40 49 51 51 52 52 52 54 60 57 57 43 35 33 37 35 34 31 27 27
51 41 23 24 44 54 60 56 50 42 38 45 50 48 40 32 33 29 28 26 28 32 37 38 42 46 40 46 49 47 47 49 60 56 61 59 45 35 32 30 33 34 31 31 36
55 46 34 23 47 45 54 58 51 49 39 39 39 51 48 38 35 35 31 29 30 33 36 39 42 45 38 40 43 45 48 49 53 57 57 59 44 34 35 29 27 28 29 33 31
63 59 52 46 29 40 49 53 55 42 43 36 33 44 49 46 43 36 35 31 33 36 39 42 46 42 39 33 37 47 47 49 52 66 56 49 37 36 33 32 35 32 29 25 30
66 57 42 49 39 43 40 45 53 42 43 36 35 44 51 53 48 43 41 39 39 41 43 42 46 47 42 40 42 44 43 46 50 52 53 43 44 37 34 34 34 37 34 33 33
72 55 48 38 34 43 50 47 48 41 46 43 33 35 49 57 55 52 52 50 45 47 46 45 46 44 46 45 46 52 47 47 44 52 51 44 39 36 30 27 33 33 35 37 41
69 50 50 39 42 39 38 46 45 37 43 41 27 27 48 56 57 57 59 55 51 50 51 50 52 55 53 49 49 58 42 43 41 39 34 38 35 34 30 29 29 35 37 39 44

GFSSW_prec_cthk_057.txt.gz
RH
32 26 24 22 20 19 19 21 22 22 21 21 22 22 21 20 19 17 17 18 16 15 16 17 20 21 22 23 23 26 29 40 37 39 47 52 55 59 60 60 59 61 64 61 72
49 42 36 34 31 28 26 24 24 24 23 23 24 24 22 21 20 19 19 19 18 17 18 18 19 21 22 25 27 28 33 39 37 37 41 50 53 59 60 59 58 63 65 67 76
54 56 53 48 47 45 40 35 29 27 26 25 25 25 24 22 21 22 22 19 18 18 18 17 18 19 22 25 28 30 36 39 40 43 46 48 50 59 60 60 57 60 61 68 74
49 51 52 53 52 52 50 46 38 31 28 28 27 27 25 24 21 24 23 20 17 18 18 16 17 22 22 26 26 30 35 42 43 42 43 47 50 56 57 57 55 57 59 62 72
49 49 51 47 48 51 49 48 45 38 32 30 29 29 28 26 23 19 21 19 17 17 17 16 21 26 30 32 35 31 36 42 43 43 45 47 53 57 59 59 58 54 59 73 80
38 48 49 51 51 47 48 48 48 43 36 34 32 32 31 29 23 19 20 19 18 18 17 21 26 29 32 33 37 35 39 42 46 41 51 53 58 55 58 62 55 53 59 80 85
33 35 45 46 48 57 46 48 51 47 41 37 35 35 33 28 24 19 19 20 19 19 20 23 27 27 31 33 36 37 43 43 44 46 51 54 59 52 58 57 56 54 55 66 72
26 29 34 40 45 53 55 50 47 48 42 38 36 36 33 28 24 19 19 20 22 22 23 25 27 26 27 31 34 37 39 44 52 58 58 58 52 55 58 56 53 49 50 50 56
26 27 26 34 42 52 60 52 54 49 43 38 36 36 32 28 24 19 19 22 23 26 26 27 29 30 28 31 32 41 38 41 46 53 57 55 50 52 54 52 48 46 45 52 48
23 25 25 25 36 44 52 56 59 51 44 38 38 37 30 29 25 20 19 23 26 27 28 30 33 35 34 32 33 41 44 43 46 51 59 56 49 50 54 54 50 42 41 50 47
25 22 23 25 30 37 47 50 51 45 49 36 36 35 29 28 26 19 19 24 28 28 31 35 37 39 33 38 35 41 45 47 48 48 53 51 52 49 53 58 55 46 41 38 39
32 28 22 23 28 34 47 52 55 50 49 42 32 34 33 31 30 23 19 24 27 28 32 37 42 42 39 42 41 42 45 45 48 50 51 49 47 47 53 54 52 49 42 39 39
29 30 26 25 32 37 44 48 56 54 58 57 39 33 30 29 30 23 20 23 26 27 32 37 41 42 47 50 47 40 43 49 49 51 50 46 41 37 40 47 51 49 46 39 38
25 27 25 31 30 34 34 41 55 64 63 49 51 42 32 25 27 21 21 22 26 26 34 36 38 41 45 46 48 48 43 48 49 49 49 46 48 35 32 41 44 45 46 48 41
22 24 21 29 34 33 35 39 48 52 51 36 46 50 37 26 22 21 22 23 26 27 33 32 36 40 45 45 43 45 47 49 52 51 50 49 45 36 31 27 32 41 47 49 49
27 23 22 24 29 31 39 46 51 55 58 35 48 47 43 32 24 23 25 25 25 30 34 33 36 40 40 45 46 47 51 52 52 53 53 46 44 38 32 32 27 36 42 50 51
29 28 24 23 22 34 45 54 59 64 31 34 48 44 35 31 25 25 26 26 28 33 36 34 35 38 41 47 48 50 51 54 55 56 51 49 46 39 37 34 35 36 37 44 45
30 29 29 20 24 35 51 61 63 45 38 37 45 46 34 28 26 26 26 28 26 27 35 35 37 35 39 46 48 48 49 55 50 50 45 45 42 34 35 34 37 39 38 37 37
39 37 31 21 26 41 58 63 48 45 38 32 40 48 43 26 27 27 28 26 25 26 30 39 35 35 42 47 49 50 52 51 56 60 56 46 39 32 31 32 39 39 41 39 33
47 42 35 22 27 41 57 56 48 40 37 41 41 43 42 33 29 30 29 25 25 27 29 36 38 39 42 48 50 50 51 54 56 58 55 46 43 38 35 37 36 38 36 36 35
53 53 39 27 34 52 52 50 49 40 37 45 50 52 42 40 29 30 29 25 25 27 30 35 35 40 42 48 50 54 55 54 53 53 52 52 42 36 40 38 38 38 37 35 28
62 58 44 33 46 43 46 45 51 43 44 43 48 50 47 41 39 29 26 25 26 27 31 36 40 46 39 44 51 50 47 49 56 53 56 55 46 37 37 40 38 36 34 32 30
71 58 55 36 50 39 40 48 43 50 43 49 48 50 49 47 40 37 30 26 28 30 31 38 42 44 40 39 44 48 49 48 50 54 53 57 48 36 38 36 37 35 33 32 29
80 69 74 57 31 33 45 46 50 47 49 54 47 50 51 52 49 40 35 29 28 32 34 39 43 39 38 36 37 42 43 45 47 54 48 46 43 38 37 36 33 34 32 32 30
82 79 56 55 43 34 34 37 46 49 49 49 46 44 51 53 58 48 43 41 41 37 39 42 42 42 39 40 42 39 37 42 44 39 45 40 46 40 39 38 33 29 27 30 34
81 71 53 46 38 42 46 44 43 46 44 51 46 48 32 49 57 60 51 50 47 45 44 44 48 47 45 45 43 44 39 44 46 45 40 41 38 47 42 36 33 33 30 32 37
71 57 53 40 51 44 39 42 44 44 41 47 44 43 35 34 59 58 53 52 52 49 51 50 52 50 50 50 50 49 41 43 45 44 41 39 34 36 32 32 32 34 34 32 32

GFSSW_prec_cthk_060.txt.gz
RH
50 43 39 34 30 26 24 22 21 20 21 22 22 23 22 21 20 18 19 20 19 17 18 17 18 18 18 19 21 22 27 36 39 37 48 48 50 57 58 64 62 65 68 70 67
54 55 52 47 41 38 35 34 31 27 25 24 24 24 24 22 21 20 21 22 21 18 18 18 18 17 19 21 23 26 32 37 37 35 39 41 48 54 59 63 60 68 71 71 74
46 48 51 56 54 50 46 43 43 39 34 30 27 26 25 24 23 24 23 23 22 20 19 18 17 18 19 22 24 28 34 38 39 40 42 43 49 54 57 61 57 61 65 73 84
42 44 45 47 53 54 51 49 48 47 41 35 30 28 27 26 25 25 26 26 23 19 19 17 16 19 23 27 28 26 31 40 42 42 40 43 46 55 58 57 58 58 58 64 72
32 38 42 44 45 47 46 46 48 48 44 39 33 31 30 31 28 25 27 26 22 20 18 16 17 21 24 28 31 28 31 36 39 44 43 44 49 56 56 58 60 54 59 65 74
30 32 33 40 44 46 45 46 45 47 47 42 37 35 34 34 29 26 23 27 23 19 18 16 21 23 25 29 33 33 34 41 40 38 44 52 54 57 57 58 55 56 68 74 84
32 31 32 33 37 40 45 45 48 47 48 47 45 39 38 35 31 28 24 27 24 21 19 20 22 24 26 30 31 35 35 40 46 44 47 50 52 54 56 55 53 57 62 80 82
30 32 31 29 32 37 40 41 45 50 52 52 48 41 39 34 32 28 24 28 24 21 21 21 24 25 25 26 29 32 34 41 44 46 51 55 59 51 56 55 53 51 55 63 67
29 29 29 28 27 30 36 38 41 48 51 49 49 42 37 34 32 28 24 28 26 23 23 24 25 28 28 28 29 30 41 40 47 52 53 52 57 50 53 54 52 49 49 58 60
36 27 26 27 28 30 29 38 43 47 50 52 51 44 34 35 32 28 24 28 28 27 27 26 29 32 33 33 33 32 39 43 44 51 50 54 49 46 52 52 53 42 46 53 46
31 33 26 24 26 30 33 37 42 41 45 44 50 45 38 36 35 29 26 28 28 28 28 28 31 37 35 32 34 35 36 43 45 44 53 51 51 43 47 52 52 44 41 52 47
23 28 29 25 24 27 35 43 40 40 42 43 41 41 39 40 36 33 28 30 28 29 29 30 31 38 34 37 36 36 39 40 41 45 50 50 47 42 47 51 52 51 44 41 46
23 22 25 25 25 28 34 39 41 44 43 43 41 42 37 34 33 34 28 30 27 30 28 29 34 36 41 44 42 40 48 45 45 42 44 45 43 40 40 43 48 51 45 40 40
27 25 22 21 21 29 32 34 40 48 46 39 48 44 47 39 30 30 31 27 27 30 28 29 34 37 43 45 45 45 45 45 46 47 48 44 47 36 36 38 41 43 41 38 37
30 28 27 20 25 28 33 29 43 51 34 33 44 52 50 48 39 41 31 27 26 26 29 29 32 35 39 43 44 47 45 49 50 51 48 45 43 42 31 26 30 36 38 42 43
40 33 29 23 22 26 32 36 45 51 39 29 43 50 49 50 42 36 28 27 25 30 27 33 32 34 39 41 43 44 46 49 51 52 52 48 44 40 38 34 27 27 39 43 46
39 40 37 31 21 29 34 45 51 48 30 29 42 50 48 44 46 33 29 29 26 31 30 31 32 34 36 42 46 45 49 58 59 55 54 46 44 42 37 33 31 30 34 41 44
42 46 41 37 25 36 42 49 43 30 31 36 37 48 53 41 41 39 33 27 26 25 31 33 35 33 34 39 50 47 50 51 53 52 49 44 39 40 35 32 33 36 37 38 42
47 55 48 41 28 43 51 52 27 34 34 33 36 45 50 41 37 38 33 25 25 26 29 32 33 33 35 38 46 52 49 48 52 52 49 41 38 34 31 29 32 34 40 42 43
54 63 47 48 35 46 54 34 27 32 34 38 34 40 48 52 34 32 31 27 28 25 26 30 35 33 36 40 46 52 51 52 52 55 52 46 40 40 36 37 31 36 37 36 40
72 75 52 45 46 55 51 32 33 36 35 41 41 43 38 42 46 33 30 27 27 27 28 32 33 41 39 39 45 51 53 54 53 51 52 50 43 39 36 36 35 35 39 40 39
73 75 61 51 58 57 47 34 31 36 38 44 47 46 46 38 43 36 30 26 25 26 28 31 34 40 38 41 42 51 53 53 55 54 49 49 39 36 38 34 39 37 33 32 35
79 79 78 65 55 52 45 43 37 38 34 46 42 48 48 51 46 44 28 27 27 29 27 32 33 41 40 41 41 43 49 49 50 49 45 52 41 38 35 36 37 37 37 35 31
91 88 89 80 35 32 49 47 46 39 38 44 41 48 50 47 50 46 41 30 27 31 32 33 33 35 39 39 38 40 42 47 47 51 44 45 40 39 43 38 34 33 32 32 29
96 80 57 61 55 34 39 43 46 48 38 44 48 45 53 54 57 54 45 44 36 33 36 38 38 36 35 38 37 34 33 35 37 36 39 37 36 39 46 43 39 37 35 30 27
95 72 64 54 45 32 35 49 44 43 33 38 42 42 51 63 60 61 52 49 46 38 38 43 42 39 38 36 37 35 33 37 36 36 39 37 34 33 33 39 42 42 36 31 29
93 82 64 54 56 55 40 36 45 53 45 39 38 45 44 61 73 65 66 60 54 49 45 46 45 44 43 42 43 45 35 35 37 36 38 43 40 38 32 33 39 36 34 32 34

GFSSW_prec_cthk_063.txt.gz
RH
47 52 49 43 39 36 35 31 29 28 25 22 22 22 22 22 22 22 22 23 19 19 20 21 20 19 17 17 18 19 24 29 33 32 36 58 44 53 48 62 64 63 68 73 71
41 44 48 53 51 47 43 40 37 35 35 33 28 27 26 25 24 23 23 22 21 21 21 22 21 20 20 21 19 20 33 33 33 34 36 39 43 53 51 53 69 62 61 71 75
35 38 42 43 46 50 51 50 46 44 42 41 37 33 30 28 28 28 23 23 23 22 23 22 20 19 22 25 25 29 31 36 34 40 40 41 44 50 51 57 83 67 59 63 74
26 32 36 39 42 42 44 48 47 47 47 44 42 37 33 30 31 30 25 26 26 24 23 22 19 18 22 30 30 24 27 34 38 37 36 40 43 45 57 61 58 61 56 55 66
25 27 31 35 38 40 42 42 41 41 44 44 45 45 36 36 33 31 28 28 28 25 23 22 18 18 23 28 28 26 28 38 37 39 42 39 39 50 55 55 54 52 52 58 64
31 27 27 30 31 35 37 40 41 38 40 41 43 48 43 38 35 33 29 28 30 26 23 22 18 21 24 26 28 37 32 34 39 34 37 39 53 47 64 56 56 52 57 69 76
37 32 31 30 31 31 33 32 36 36 38 40 42 47 48 36 38 38 32 30 32 27 25 21 21 23 27 25 27 27 33 38 41 46 38 39 52 65 62 53 51 49 61 74 77
36 36 32 31 31 30 30 30 31 33 33 39 42 50 50 40 39 38 34 30 32 28 25 24 21 24 26 27 25 28 32 39 47 49 43 39 58 73 56 49 46 48 52 61 65
33 33 32 30 30 30 30 29 30 33 35 37 42 46 46 43 37 36 36 32 32 28 25 24 23 24 30 26 28 34 36 46 47 45 47 47 64 78 47 46 52 46 48 57 56
22 27 30 29 27 27 28 31 32 32 38 38 43 49 42 40 41 38 36 33 36 31 27 26 26 28 33 37 39 39 33 38 33 50 39 47 42 60 48 42 56 50 46 57 50
24 21 23 27 24 24 25 35 46 55 53 39 40 39 45 48 41 38 36 35 35 34 30 28 30 32 47 46 34 35 38 35 42 45 37 48 52 51 57 44 50 48 46 49 50
28 26 21 21 24 22 25 32 44 42 36 41 39 36 41 49 48 45 36 35 34 34 32 39 33 34 40 33 32 32 42 39 42 36 35 47 47 49 49 47 49 49 45 41 51
26 28 26 23 20 16 26 29 40 42 43 34 34 31 35 40 45 45 43 37 36 33 35 35 38 36 36 35 35 38 46 51 46 55 35 39 39 45 42 44 42 46 50 42 43
26 33 28 28 19 18 26 23 36 39 40 30 41 34 35 36 39 39 37 34 38 35 36 33 37 31 34 39 44 53 43 40 40 41 46 54 52 53 44 35 38 40 40 35 37
28 37 35 29 31 29 37 30 31 41 31 31 40 40 38 39 37 38 43 32 35 35 37 33 30 34 34 42 43 47 54 41 42 52 50 48 40 52 34 30 39 36 41 41 39
29 37 41 33 30 27 39 31 36 41 34 31 39 38 42 43 45 44 41 32 40 37 34 34 32 32 33 38 40 45 44 43 45 49 56 49 44 50 45 37 36 37 36 42 44
34 37 44 40 30 34 39 42 45 35 25 27 39 39 42 45 51 50 47 40 44 36 35 32 37 32 35 36 39 41 45 53 58 69 51 55 39 44 46 40 34 36 34 41 46
45 40 45 42 32 42 47 54 43 20 24 35 39 45 41 41 46 51 53 50 41 30 37 33 40 32 32 31 46 47 46 56 67 61 68 42 35 42 39 35 33 33 32 32 36
60 52 45 49 37 46 65 66 25 21 22 24 38 47 44 42 42 51 51 45 33 30 35 36 36 38 38 32 38 52 47 55 61 48 47 41 39 32 33 30 31 33 33 40 40
78 64 49 55 49 50 71 60 23 18 20 29 32 38 44 37 41 54 47 48 40 31 28 38 46 38 39 36 34 50 52 51 47 61 57 43 39 40 41 40 30 33 35 36 41
95 81 59 68 64 63 67 39 39 25 28 33 37 31 45 46 39 47 46 46 44 31 33 38 40 48 43 35 38 39 51 50 60 61 59 49 41 46 34 35 35 35 34 37 38
98 84 74 75 78 62 44 37 42 32 35 45 49 34 51 50 41 48 49 46 38 32 33 35 39 53 43 35 35 54 45 52 55 50 50 49 45 45 39 39 40 35 34 35 37
91 93 92 85 76 58 28 27 43 53 39 52 51 43 48 48 51 42 52 43 38 35 37 36 42 46 49 45 38 40 49 53 54 51 59 62 48 51 43 35 37 37 40 36 33
97 94 98 93 64 46 34 31 39 45 48 54 54 52 44 41 48 45 42 49 39 33 36 38 40 42 43 44 42 39 40 47 52 56 49 48 45 47 46 47 47 47 40 37 32
98 87 78 75 67 49 48 38 29 35 47 54 58 52 48 42 51 57 47 54 44 36 40 41 42 40 39 44 44 44 43 42 47 49 50 44 45 41 45 45 49 53 47 35 33
94 77 74 72 76 60 54 50 47 30 39 60 58 55 54 48 50 67 58 57 53 39 38 41 48 42 42 41 45 44 42 42 39 41 36 37 40 41 45 43 40 38 40 43 41
92 75 79 82 82 74 55 47 49 40 40 52 55 61 61 63 59 62 66 59 67 60 41 47 50 48 46 42 45 47 36 36 37 40 39 38 38 44 47 48 42 35 33 41 46